GFSMW_con_lsi_003.txt.gz
Lid_Strength_Index
4 3 3 3 3 2 3 3 3 4 3 4 5 4 5 4 4 3 2 2 2 2 3 3 2 3 3 4 3 3 3 3 3 4 4 3 3 3 2 1 2 3 2
5 4 4 4 4 5 5 5 4 4 4 4 4 4 4 4 4 3 3 2 2 3 3 4 3 4 4 4 4 4 4 5 4 5 5 6 5 4 3 2 2 3 1
5 4 4 5 5 5 5 5 5 5 5 4 5 5 5 4 4 3 3 3 2 3 4 4 4 4 4 5 5 4 5 5 5 4 5 7 8 6 4 3 3 4 3
4 4 4 4 4 4 4 4 4 4 4 4 5 5 5 5 4 4 4 4 4 4 4 4 4 4 4 5 4 3 4 4 5 4 3 5 6 8 9 6 5 5 5
5 5 4 4 4 4 4 5 4 4 4 5 5 5 5 5 5 5 6 6 5 5 4 4 5 4 4 5 4 4 5 5 5 5 5 6 6 5 7 9 8 6 5
5 4 4 3 4 4 4 5 5 5 4 5 5 5 6 6 6 7 7 6 6 5 5 4 5 4 5 5 5 4 5 5 4 4 4 5 5 7 8 9 8 8 7
5 5 5 5 5 5 5 5 4 4 4 5 5 5 6 6 7 7 7 7 6 6 6 5 6 5 5 5 4 5 5 5 6 6 6 5 5 5 5 6 6 7 6
5 5 5 5 5 4 4 4 4 3 3 4 5 5 5 6 6 6 6 6 6 6 5 5 5 4 4 5 5 5 5 4 4 4 4 4 3 4 4 4 5 5 5
6 5 4 4 4 4 4 4 3 4 5 5 6 6 5 4 5 5 6 6 5 4 5 4 4 4 4 3 4 4 4 4 4 3 3 2 2 3 3 2 2 4 7
5 5 5 4 5 4 4 4 4 5 5 6 5 4 4 4 4 5 5 5 5 4 4 5 4 4 4 3 3 3 3 3 4 3 3 3 3 1 2 3 3 3 4
6 5 5 5 5 5 5 5 4 5 5 5 4 4 4 5 5 5 6 5 5 4 4 4 3 3 3 3 3 3 3 3 3 3 3 3 3 3 2 2 3 4 4
6 6 5 5 6 6 6 6 6 5 5 5 5 5 5 5 5 5 5 5 4 4 3 3 4 4 4 4 4 3 3 4 5 5 5 5 4 5 4 3 3 4 4
6 6 6 6 6 7 6 6 6 5 5 5 5 6 4 5 6 6 6 6 5 5 5 4 4 4 4 4 5 5 6 6 6 6 7 6 6 6 5 5 5 5 5
6 6 6 7 7 7 7 8 7 7 6 5 5 5 4 4 6 5 5 4 4 5 5 4 4 3 4 5 6 6 7 7 7 6 6 6 6 6 5 5 5 5 8
7 7 7 8 8 9 9 9 8 8 7 5 5 5 4 5 4 4 3 3 3 4 5 5 4 4 5 5 7 7 8 8 8 7 6 6 5 3 3 4 5 6 7
7 7 7 8 9 9 9 9 9 9 8 8 6 4 4 4 3 2 2 3 4 5 6 5 5 6 5 6 6 7 9 8 8 9 8 7 6 5 4 4 4 4 6
8 8 8 9 9 10 9 10 10 9 8 7 6 4 4 4 2 1 2 4 5 6 6 5 5 6 8 6 6 6 8 9 9 9 8 7 6 6 5 5 4 5 4
8 8 9 10 10 10 10 10 9 9 8 7 6 4 4 3 2 1 3 4 5 6 6 6 6 6 6 5 4 6 8 8 8 7 7 7 6 5 5 6 6 6 6
9 10 10 10 11 11 10 10 9 9 8 6 6 5 3 3 3 3 3 4 6 6 6 6 6 7 7 4 4 6 8 8 8 7 7 6 6 5 4 5 6 6 6
9 10 10 11 11 11 10 10 9 9 7 6 5 3 3 3 3 2 3 5 6 6 6 6 6 5 7 4 5 6 9 11 9 8 8 7 6 4 4 6 8 9 8
10 9 11 11 11 10 9 9 9 8 6 5 3 3 2 3 3 3 5 6 7 6 8 7 7 7 7 7 6 7 10 10 9 10 9 8 6 6 5 5 7 8 7
10 10 11 11 10 9 9 9 9 7 5 4 4 3 3 3 3 5 6 6 7 7 9 11 11 10 9 6 7 8 8 8 11 10 9 8 6 7 7 6 6 7 8
11 10 11 10 9 9 8 8 7 6 5 5 5 4 4 4 4 6 7 8 8 10 10 9 13 11 10 11 8 9 8 9 10 10 9 8 8 8 8 7 7 8 9
11 11 10 10 10 8 7 7 7 5 5 5 5 5 5 5 5 6 7 8 11 11 9 11 12 13 12 13 12 11 11 9 10 10 10 10 9 10 9 10 10 10 11
11 10 10 9 8 8 7 6 6 5 5 5 5 6 7 7 6 7 8 9 9 9 11 12 12 18 19 13 8 9 10 10 10 11 12 12 12 12 11 12 12 12 11
10 10 9 8 8 7 7 6 5 6 6 6 7 7 8 8 7 8 8 6 6 6 7 8 12 15 10 8 7 8 8 9 9 12 13 14 14 14 13 13 13 12 12

GFSMW_con_lsi_006.txt.gz
Lid_Strength_Index
6 5 5 5 5 7 6 6 5 4 5 5 5 5 6 5 5 4 3 3 3 3 4 4 4 4 5 5 5 5 5 5 5 6 5 6 5 5 4 4 4 4 4
6 6 6 6 6 6 5 5 5 5 5 4 5 5 6 5 5 3 3 3 4 4 4 5 5 5 5 5 5 5 6 5 5 6 7 8 6 6 5 5 5 5 5
7 6 5 7 7 7 6 6 6 6 5 5 6 5 5 5 4 4 5 5 5 4 5 5 5 5 5 6 6 6 6 6 6 6 6 8 10 8 6 6 6 7 6
5 5 6 6 6 6 6 5 5 5 5 5 5 5 5 6 5 5 6 6 5 5 5 5 5 5 5 6 6 4 6 6 7 6 5 6 7 8 9 8 6 6 6
6 6 5 5 5 5 5 5 5 5 5 5 5 5 6 6 6 6 7 7 6 5 6 5 5 5 5 5 6 5 6 6 6 6 6 7 7 6 8 10 9 7 7
6 5 5 5 5 5 5 6 6 5 5 5 5 5 6 6 7 7 8 7 7 6 6 5 6 6 6 6 6 6 6 6 6 6 6 6 7 8 8 8 8 9 8
6 6 6 5 5 5 5 5 5 5 5 5 5 6 7 7 8 8 7 7 6 6 6 6 6 6 6 5 5 6 5 5 5 5 5 5 5 5 6 6 7 8 7
6 6 6 6 6 5 5 5 5 6 5 6 6 6 6 6 6 6 7 6 6 6 6 6 5 5 5 5 5 6 6 5 5 6 5 5 4 4 4 4 5 6 6
7 6 6 6 5 5 5 5 5 6 6 6 6 6 5 5 5 5 6 6 6 5 6 5 6 6 5 5 5 5 5 5 5 5 4 4 3 3 3 2 3 5 8
7 6 6 6 6 5 5 4 5 6 6 6 5 4 5 5 6 7 7 7 7 6 5 6 6 5 4 4 4 5 4 4 4 4 4 4 4 3 3 3 3 4 5
7 7 7 6 7 7 7 6 6 6 6 6 6 6 7 7 7 7 6 6 6 5 4 5 5 5 5 5 5 4 4 4 4 5 6 6 6 6 6 5 4 4 4
7 7 7 7 8 8 8 8 7 7 7 6 6 6 7 7 7 7 7 6 6 5 4 4 4 5 6 6 6 5 5 6 7 7 7 7 6 7 7 7 7 6 5
8 8 8 8 8 9 9 10 10 10 9 8 7 7 6 6 7 7 7 6 6 5 4 4 5 5 6 6 6 6 6 7 7 7 8 8 8 8 8 7 7 6 5
8 8 8 9 9 10 11 11 10 10 10 10 9 9 8 6 7 7 6 5 3 2 3 5 5 5 5 5 6 6 8 8 7 7 7 8 8 8 8 7 7 6 7
8 8 9 10 11 11 11 11 11 10 10 10 10 9 7 7 6 5 5 3 2 2 3 5 5 5 5 6 7 7 8 8 8 7 8 8 7 5 5 5 5 7 8
9 9 9 10 11 11 11 11 11 10 10 10 9 7 6 6 6 5 4 3 3 4 4 5 5 5 5 5 5 7 8 8 8 9 8 8 6 6 5 4 4 5 7
9 9 10 11 11 12 11 12 11 10 10 10 8 7 6 6 5 4 3 3 4 3 5 5 6 7 7 5 5 5 8 8 9 9 9 8 7 6 6 5 4 5 4
9 9 11 11 11 12 12 11 11 11 10 9 8 7 7 6 5 4 3 3 4 5 6 7 6 7 6 5 5 6 7 8 8 8 8 9 8 7 7 6 5 5 5
10 10 11 11 12 12 11 11 11 11 10 8 8 7 6 5 5 4 3 3 5 7 6 6 7 7 7 5 5 6 8 9 9 8 8 8 8 6 5 6 7 7 6
10 11 11 12 12 11 11 11 11 10 10 8 7 6 5 4 4 4 4 5 7 6 6 7 7 6 8 6 6 7 11 12 10 9 9 8 8 7 5 6 7 8 8
10 11 11 12 11 11 11 11 11 10 9 7 7 6 5 4 4 4 6 6 7 7 9 8 8 8 8 8 7 8 10 11 10 11 10 9 7 7 7 6 7 7 6
12 11 12 12 11 11 10 11 11 9 8 7 7 6 6 5 5 6 6 7 7 9 11 14 12 11 10 8 8 8 8 8 13 11 10 9 8 7 7 7 7 6 8
13 12 12 12 11 10 10 11 10 8 8 7 7 7 6 6 6 7 8 9 10 12 11 10 14 12 11 12 9 9 8 9 11 10 9 9 9 9 9 8 8 8 9
13 12 12 12 11 10 9 9 8 8 8 8 7 7 7 6 6 7 7 9 12 13 10 11 12 14 13 14 12 11 13 11 10 10 11 11 10 10 10 10 10 10 11
12 12 12 11 11 10 9 8 8 7 8 7 7 7 8 7 7 8 8 8 9 9 12 12 12 19 19 14 9 9 11 12 11 14 14 13 13 13 13 13 12 12 12
12 12 11 11 10 9 9 8 8 7 7 7 7 8 9 9 7 7 7 6 6 7 6 7 12 16 11 8 7 8 8 9 10 15 16 17 17 15 14 15 15 13 12

GFSMW_con_lsi_009.txt.gz
Lid_Strength_Index
7 7 7 7 6 6 6 5 4 3 4 5 5 5 6 6 5 5 4 4 4 4 5 5 5 5 5 6 6 6 6 6 5 7 6 6 7 6 5 5 5 5 5
7 7 7 8 8 7 6 5 5 5 4 5 5 5 5 5 3 4 5 5 5 5 5 6 6 6 6 6 6 6 6 6 6 7 7 9 7 6 5 6 6 7 6
8 7 7 8 8 7 6 6 6 6 5 4 4 5 5 5 5 6 6 6 5 5 5 6 6 6 6 7 7 6 7 7 6 6 7 9 10 9 6 6 7 7 7
6 6 7 7 7 7 7 6 5 5 5 5 5 6 6 6 6 6 7 7 6 6 6 6 6 6 6 7 6 6 7 7 8 6 5 6 7 9 10 8 7 7 7
7 7 7 6 6 6 7 6 5 5 5 6 6 6 6 6 6 7 8 7 7 6 6 6 6 6 7 8 8 7 7 7 7 7 7 6 6 7 8 9 9 8 7
7 7 6 6 7 7 6 7 6 6 5 6 6 6 7 7 8 8 8 8 7 7 6 6 7 7 7 7 7 7 7 7 7 6 6 6 6 6 6 7 8 8 7
7 6 6 6 6 7 6 6 6 6 6 7 7 7 8 8 8 7 6 7 7 6 7 7 7 7 7 7 7 7 7 7 8 7 7 5 6 5 4 5 6 6 5
7 7 7 7 7 7 8 8 7 7 7 7 7 7 7 7 6 6 6 7 7 7 7 8 7 6 6 7 7 7 7 7 7 7 6 5 5 5 4 4 5 8 7
8 7 7 7 7 7 7 7 7 7 7 6 6 6 6 6 6 6 7 8 8 7 7 7 6 6 6 6 6 6 6 6 6 6 6 6 5 5 4 4 4 5 9
8 8 7 8 8 7 7 7 6 7 7 7 7 6 7 7 7 7 8 8 8 7 6 6 6 6 6 5 5 6 6 5 5 5 6 7 5 6 6 6 6 5 6
8 8 8 8 8 8 8 8 8 8 9 9 8 8 8 7 8 8 8 8 8 7 6 6 6 5 5 5 5 6 5 5 6 7 7 7 7 7 7 7 7 7 7
9 8 9 8 9 10 10 10 10 10 10 10 9 9 8 8 8 8 9 8 7 8 7 6 4 5 5 5 5 5 5 7 8 7 8 8 7 8 8 8 8 8 7
9 9 9 9 10 11 10 11 11 11 11 11 11 10 10 9 8 9 9 8 7 6 6 4 5 5 5 4 5 5 7 7 7 8 8 8 8 9 9 9 8 7 6
9 9 10 10 10 11 11 11 11 11 11 11 11 10 9 8 9 10 9 8 7 6 6 4 5 5 4 5 5 6 7 8 7 7 8 8 8 9 9 8 6 5 6
9 9 10 10 11 12 12 12 11 11 11 11 10 9 8 9 9 8 8 7 6 5 4 5 5 5 5 5 7 7 7 8 8 8 8 8 7 6 6 7 8 7 7
9 9 9 10 11 12 12 12 11 11 10 11 10 9 9 8 8 7 7 5 5 4 6 4 5 6 6 5 5 6 8 8 8 9 8 8 7 7 6 6 6 6 7
9 9 10 11 11 12 12 12 12 11 11 11 10 9 9 8 8 7 6 5 5 5 5 7 7 7 7 5 4 4 7 7 9 8 8 8 8 8 8 7 6 6 5
9 9 10 12 12 12 12 12 12 11 11 11 10 9 9 9 8 7 6 6 4 5 7 7 7 7 6 4 5 5 7 9 8 9 9 9 9 8 8 7 7 6 6
9 10 11 12 12 12 12 12 12 12 11 11 10 9 9 8 7 7 6 6 5 7 7 7 7 8 8 6 6 7 10 10 10 9 9 9 9 8 6 7 7 7 6
10 11 12 12 13 12 12 12 12 12 12 11 9 9 8 8 7 7 7 6 8 7 7 7 8 8 9 7 7 8 11 13 11 10 10 9 8 7 7 8 8 9 8
12 12 12 13 12 12 12 12 12 12 11 10 9 9 8 8 8 7 7 8 7 7 8 8 9 9 9 10 8 8 12 12 10 11 11 10 8 8 7 7 8 8 7
13 12 13 13 12 12 12 12 12 11 10 9 9 9 8 8 7 8 8 8 8 9 10 14 13 12 11 9 9 8 8 8 12 11 10 10 9 8 8 8 8 8 8
13 13 13 12 12 12 12 12 11 10 10 9 9 8 8 8 8 8 9 9 9 11 11 10 14 13 11 12 9 9 8 9 13 11 9 9 10 10 10 9 9 10 10
14 13 13 13 13 12 11 11 10 9 9 9 8 7 8 8 8 8 8 9 11 11 9 11 12 14 13 14 13 12 14 11 11 12 13 12 11 12 12 12 11 11 12
13 13 13 13 12 11 11 11 10 9 9 8 7 7 8 8 8 8 8 8 8 8 10 12 12 19 20 15 10 9 13 16 13 17 18 15 14 14 14 14 14 13 12
13 13 13 12 12 11 11 11 10 9 8 7 7 7 6 8 7 8 8 5 5 5 5 6 12 16 11 8 8 8 9 9 10 16 20 23 20 17 15 16 16 16 15

GFSMW_con_lsi_015.txt.gz
Lid_Strength_Index
4 3 2 1 1 1 1 1 1 2 2 3 2 2 1 2 3 3 2 3 3 3 3 3 2 2 3 3 3 3 4 4 3 5 5 5 2 2 2 2 3 3 4
5 4 3 2 2 2 2 2 2 2 1 1 1 0 1 1 3 3 3 4 3 3 3 2 2 2 3 3 3 4 4 4 3 6 6 7 6 4 3 3 3 3 3
5 5 4 2 2 2 2 2 1 1 1 1 2 2 1 2 3 4 4 3 3 3 2 2 2 2 3 3 4 4 4 5 4 4 6 8 9 7 5 4 4 3 4
5 5 4 4 4 4 3 3 3 3 4 3 2 2 2 3 3 4 3 3 3 3 3 3 3 3 3 4 4 5 5 6 7 6 5 6 6 9 10 6 5 4 4
5 5 6 5 5 5 4 4 4 4 3 3 2 3 3 3 3 3 3 4 3 4 4 4 4 4 4 5 5 5 6 6 7 7 7 7 6 6 7 9 7 5 4
5 6 5 5 5 5 4 3 4 4 3 3 3 3 3 4 4 4 4 3 3 3 4 4 4 4 5 5 5 6 6 6 6 6 6 7 7 7 6 7 6 6 4
5 5 5 5 5 4 4 4 4 5 4 4 5 4 4 4 4 4 4 4 4 4 3 4 5 5 6 5 6 6 6 6 6 5 5 4 4 3 3 4 5 5 4
5 5 5 6 5 5 5 5 5 5 4 4 4 4 4 4 5 5 5 5 5 5 4 4 5 5 5 5 5 5 5 4 4 4 3 3 2 1 2 2 4 6 5
5 6 6 6 6 5 5 5 5 6 7 6 6 6 6 6 6 6 6 6 5 5 4 5 5 4 5 5 5 4 4 4 3 2 2 2 1 1 2 2 3 5 8
6 6 6 6 5 5 5 6 7 8 7 7 7 7 7 7 7 6 7 6 5 5 5 5 5 5 5 5 4 4 3 3 2 2 2 1 2 2 2 3 3 4 6
6 7 7 6 6 6 7 8 9 8 8 8 7 7 7 7 6 7 6 6 6 5 5 5 5 5 5 5 4 3 3 3 2 2 2 3 3 3 3 4 4 5 6
7 7 7 7 8 8 9 10 8 8 7 8 8 8 7 7 7 7 7 6 6 6 6 5 6 5 4 4 4 3 3 3 3 3 3 4 4 4 4 4 5 6 5
8 8 8 9 10 10 9 8 8 8 9 9 8 8 7 7 7 7 7 6 6 6 6 6 6 5 3 3 4 3 3 3 3 4 4 4 4 5 5 5 6 6 6
8 8 8 9 9 9 8 9 8 9 8 8 8 8 7 7 7 7 6 6 6 6 5 5 5 4 4 4 4 3 3 4 4 4 4 5 5 6 6 6 6 7 7
8 8 8 9 9 9 9 8 8 8 8 8 9 8 7 7 7 7 7 6 6 5 4 5 5 4 4 4 3 4 4 4 5 5 5 6 6 6 7 7 7 7 8
8 8 8 8 10 9 7 8 8 8 8 9 9 8 8 7 7 7 7 6 6 5 5 5 4 4 5 5 4 4 4 5 6 7 7 7 7 7 7 7 7 7 8
8 8 8 7 8 8 8 8 8 8 9 9 9 9 8 8 7 7 7 7 6 5 4 4 5 5 4 4 5 6 5 7 7 7 8 8 8 8 7 7 7 7 7
7 7 7 7 7 8 9 9 9 10 10 10 9 9 8 8 7 7 7 7 6 5 4 5 5 5 5 5 6 7 6 7 7 8 8 8 8 7 8 7 7 7 7
6 7 7 7 9 9 9 10 10 10 10 10 9 8 8 8 7 8 7 6 6 5 5 5 5 5 5 6 7 7 7 7 8 8 7 8 8 8 7 8 8 9 8
7 8 9 10 10 10 10 10 10 10 10 9 9 8 8 8 8 7 7 6 5 6 5 5 5 7 6 7 7 7 7 8 8 7 8 8 8 8 8 8 9 10 9
10 11 10 11 11 10 10 11 10 10 10 9 9 8 8 8 7 7 6 6 6 6 6 6 6 6 6 6 8 8 7 7 8 9 9 8 9 8 8 9 9 9 9
11 11 11 11 11 11 11 11 11 10 10 9 9 8 8 8 8 6 6 6 6 6 6 6 6 6 6 8 8 8 8 8 8 9 9 9 9 9 9 10 10 10 10
11 10 11 11 11 11 10 11 10 10 10 10 9 9 8 8 7 6 6 6 6 6 6 6 5 6 6 6 8 8 8 8 8 8 9 10 10 10 10 11 11 11 10
11 11 12 12 12 11 11 10 10 10 10 10 9 8 8 8 6 6 6 6 6 5 5 5 6 5 6 6 6 7 6 8 8 9 9 11 11 11 11 10 10 11 11
12 12 12 12 12 11 11 10 10 10 10 10 9 9 8 8 7 5 5 6 5 4 4 5 5 5 6 6 6 7 6 7 8 10 9 10 11 11 11 11 11 12 12
12 12 12 12 11 11 11 10 10 10 10 10 9 8 7 7 6 5 5 5 5 5 5 5 5 4 6 7 7 7 7 8 9 9 10 11 11 11 11 11 12 12 13

GFSMW_con_lsi_018.txt.gz
Lid_Strength_Index
3 2 1 1 1 0 0 0 0 -0 -0 -0 0 0 0 -0 0 0 0 0 1 0 0 0 0 0 1 1 1 1 2 3 2 3 4 3 3 2 2 2 2 2 2
3 3 2 1 1 1 1 0 0 -0 -0 -0 -1 -1 -1 -0 0 0 1 1 1 1 1 1 1 1 1 1 1 2 3 3 3 4 4 6 5 4 3 3 3 3 3
4 3 3 2 1 1 1 0 0 -0 -1 -1 -1 -0 -0 -0 0 0 0 1 1 1 1 1 1 1 2 3 2 3 3 4 4 4 5 7 8 7 5 4 4 3 4
3 3 3 2 2 1 0 -0 -0 -0 0 1 0 -0 0 1 1 2 1 1 1 1 1 1 2 2 2 2 2 3 4 5 6 5 5 5 6 8 8 5 5 5 5
3 3 2 2 1 0 0 1 1 2 0 -0 -0 0 1 1 1 1 2 1 1 1 2 2 2 2 2 2 3 4 4 4 5 5 6 6 6 6 8 9 7 5 3
3 3 2 3 2 2 1 0 1 1 1 1 1 1 2 3 3 3 3 4 4 4 3 3 2 2 2 3 3 4 4 4 5 6 6 7 7 7 7 7 6 5 3
3 4 4 3 3 2 2 1 2 2 2 2 3 3 3 3 4 5 5 6 6 5 5 4 3 3 3 3 4 4 4 5 5 6 6 5 5 4 4 4 5 5 3
3 3 3 3 3 3 2 2 2 3 3 3 4 4 5 6 6 6 6 6 6 5 4 4 3 3 3 4 5 3 4 4 5 5 4 4 3 3 2 3 4 5 5
3 3 3 3 3 2 2 2 3 4 5 5 6 6 6 5 5 5 6 6 5 6 5 4 3 3 3 3 4 3 4 4 4 3 2 2 2 1 1 2 2 4 7
3 3 3 3 3 2 3 3 5 6 6 7 7 6 5 5 6 6 5 6 5 5 5 4 4 4 3 3 4 4 3 4 2 2 2 1 1 1 1 2 2 3 4
3 3 4 3 3 3 4 5 6 7 7 6 5 5 5 5 6 5 6 6 5 6 6 5 4 4 4 4 4 3 3 2 2 1 2 1 1 2 2 2 2 3 4
3 3 4 4 4 4 5 6 6 7 6 6 6 6 6 5 5 6 6 6 6 6 5 5 5 4 4 4 4 3 2 3 2 1 1 2 2 2 2 3 3 4 4
3 4 4 5 5 6 6 6 6 6 7 7 6 6 5 5 6 6 6 6 6 6 5 5 5 5 4 3 3 3 3 2 2 1 2 2 2 3 3 3 4 4 5
4 5 5 5 5 6 7 7 6 5 6 6 6 6 5 6 6 6 6 6 5 5 5 4 4 4 4 4 3 3 2 2 2 2 2 3 4 4 5 5 5 5 6
5 5 5 5 6 7 7 6 5 5 5 6 6 6 6 6 6 6 6 5 5 5 5 5 4 4 3 3 3 2 2 2 2 2 3 4 5 6 6 6 6 7 7
5 5 4 5 6 6 7 5 4 5 6 6 6 6 6 6 6 6 6 6 6 5 5 5 4 3 3 6 5 5 2 2 3 4 4 4 5 6 7 7 7 7 7
4 4 4 5 5 6 5 5 5 6 7 7 7 7 6 7 6 6 6 6 6 5 5 4 3 3 3 6 6 6 3 3 4 5 5 6 6 6 6 7 7 6 6
4 4 3 5 5 5 5 5 6 7 7 8 8 7 7 7 7 6 6 6 5 6 5 4 4 3 4 6 6 6 3 4 4 5 5 5 6 6 7 7 7 6 6
3 3 3 4 6 6 6 7 7 8 8 8 9 8 8 8 7 7 6 6 6 6 5 4 4 3 3 6 7 6 4 4 5 5 5 6 6 7 8 8 8 7 7
2 4 5 6 7 7 8 8 8 9 9 9 8 8 8 8 7 7 6 6 6 6 5 4 3 5 3 6 7 6 4 5 5 5 6 7 8 8 8 8 8 9 8
3 5 6 7 8 8 8 9 9 10 9 9 8 8 8 7 7 6 6 6 6 6 4 5 3 3 4 4 7 7 5 5 6 6 6 7 8 9 9 9 8 9 9
6 7 7 8 9 9 9 10 10 9 9 8 8 8 7 7 7 7 6 6 6 5 5 5 4 3 3 6 6 7 7 7 6 7 6 7 9 9 9 9 10 10 9
8 8 10 10 10 9 9 10 9 9 9 9 8 7 6 7 7 7 6 6 5 5 5 4 4 3 3 3 7 7 7 7 7 6 7 9 9 9 8 9 9 10 8
10 10 11 10 10 10 10 9 9 9 9 9 8 7 8 8 8 7 6 5 5 5 5 4 4 3 4 3 4 4 4 6 7 6 6 8 9 9 8 8 8 8 9
10 10 10 11 10 10 9 9 9 10 10 8 8 8 8 8 8 8 7 5 4 4 4 4 4 3 4 4 4 4 4 5 6 8 6 6 7 8 8 7 8 8 9
11 12 11 11 10 10 10 10 10 9 9 9 8 8 7 7 7 7 6 6 6 6 6 5 4 2 4 5 6 6 6 6 7 7 7 7 7 8 8 8 8 8 9

GFSMW_con_lsi_021.txt.gz
Lid_Strength_Index
2 2 1 1 1 0 0 1 1 0 0 0 0 0 0 -0 -1 -1 -1 -1 -1 -0 -0 -0 -0 -0 -0 0 0 1 1 3 2 4 4 4 2 2 2 2 2 2 2
3 2 2 1 1 1 1 1 0 0 -0 -0 -0 -0 -0 -1 -0 -1 -1 -0 -0 -0 0 -0 0 0 1 1 2 2 3 3 3 4 5 7 6 4 3 3 3 2 3
4 3 3 2 1 1 1 1 1 0 -0 -1 -0 -0 -1 -1 -0 -0 -0 0 -0 0 0 0 1 1 2 3 2 3 3 5 4 3 5 8 9 7 5 4 4 2 3
3 3 3 2 2 1 0 0 0 -0 -0 -1 -0 -0 0 1 0 0 0 0 -0 0 0 1 1 2 2 2 3 3 3 4 6 5 4 4 5 8 9 6 5 5 5
3 3 3 2 1 1 1 0 -0 -0 -1 -1 -1 -0 0 1 1 1 2 2 2 3 3 3 3 2 2 2 2 3 3 4 5 5 5 5 6 6 8 10 8 6 5
3 3 2 2 1 1 0 0 1 0 -0 -0 0 1 2 2 3 4 5 5 5 4 4 4 4 3 3 3 3 3 4 4 4 5 5 6 7 8 8 8 7 6 4
3 3 3 2 2 1 1 1 1 1 1 1 2 2 3 4 5 6 6 7 5 5 5 4 4 4 3 3 3 4 4 4 5 5 5 5 6 5 5 5 6 5 3
3 3 2 2 2 2 1 1 1 2 2 3 4 4 5 6 6 6 6 5 6 6 4 4 4 3 3 3 4 4 3 4 4 4 4 5 4 3 3 4 4 5 4
3 3 2 2 2 2 2 1 1 2 3 4 4 5 6 6 5 5 4 5 5 5 5 5 5 4 4 3 3 3 3 3 3 3 3 3 3 2 2 2 2 3 6
3 3 2 2 2 2 1 1 2 4 4 4 5 6 5 5 5 5 5 5 5 5 5 5 5 5 4 3 3 3 3 3 3 3 3 3 2 1 1 1 1 2 3
3 3 2 2 2 2 2 3 4 4 4 6 6 5 5 5 6 5 5 5 5 5 6 5 5 5 4 4 4 4 3 4 3 2 2 2 1 1 1 1 2 2 3
3 3 2 2 2 2 3 4 4 4 5 5 6 5 6 5 5 5 5 5 6 5 6 5 5 5 5 4 4 4 4 4 3 3 2 2 2 2 1 2 3 3 3
3 3 3 2 2 3 4 4 4 5 5 6 6 6 6 5 5 5 5 5 6 6 6 5 5 5 5 4 4 5 5 3 3 2 2 2 2 2 3 4 4 4 5
3 3 3 3 3 3 4 5 5 4 5 6 6 6 5 5 5 5 6 5 6 6 6 5 5 4 5 5 5 5 4 3 2 2 2 2 3 3 4 5 5 5 6
4 3 3 3 3 3 4 5 4 4 5 6 6 5 5 5 5 6 6 5 6 6 6 6 5 5 5 5 5 4 3 3 2 2 2 2 4 6 6 6 6 6 7
4 3 3 3 3 4 5 5 4 4 4 5 6 5 5 5 6 6 6 6 6 6 6 6 6 5 5 9 8 7 4 3 3 3 3 3 4 4 5 6 6 6 8
4 3 3 3 2 3 4 5 4 5 5 6 6 6 6 6 6 6 7 6 6 6 6 6 6 6 6 8 8 8 5 3 3 3 4 4 5 5 5 5 6 6 6
3 3 3 2 2 2 4 4 5 5 6 6 6 6 7 7 7 7 7 7 6 6 6 6 6 6 7 8 8 8 4 3 3 4 4 5 5 5 7 7 7 7 6
2 2 2 2 1 3 4 5 6 6 6 7 7 7 8 8 8 8 7 7 6 6 6 6 6 6 6 8 7 7 4 3 4 4 4 5 6 7 8 8 8 8 7
2 2 2 1 2 4 4 6 7 7 7 8 8 8 8 8 8 8 7 6 6 6 6 6 6 7 5 7 7 6 4 4 4 4 4 6 7 8 8 8 9 9 8
2 2 2 3 4 6 6 7 8 9 8 8 8 9 8 8 8 7 7 6 7 6 6 6 5 4 4 5 6 6 5 4 5 5 5 5 7 8 8 8 9 9 8
2 3 4 5 7 7 7 8 9 8 9 9 9 9 8 8 7 7 6 7 7 7 6 5 5 4 4 6 6 6 6 6 6 6 5 5 7 8 8 8 8 9 9
4 5 7 9 9 8 9 10 9 9 9 9 9 9 8 7 7 7 7 7 6 6 5 6 5 5 3 3 5 6 6 7 6 5 6 7 7 8 7 7 8 8 7
7 8 8 9 10 9 9 9 9 9 9 10 9 8 8 8 7 7 7 6 5 5 5 5 5 4 3 3 2 4 4 6 6 5 5 6 7 7 7 7 6 6 7
8 9 11 11 10 9 9 9 9 9 10 10 9 9 8 7 8 7 6 6 4 4 4 4 4 3 3 3 3 3 3 3 5 6 5 6 5 6 6 6 6 6 7
11 11 10 10 10 9 10 9 9 10 10 10 9 8 8 7 6 6 5 5 5 5 6 6 5 2 4 4 4 4 5 6 6 6 6 6 5 6 6 6 7 6 7

GFSMW_con_lsi_024.txt.gz
Lid_Strength_Index
3 2 1 1 1 1 1 1 1 0 0 1 1 1 1 1 0 -0 -1 -0 0 1 1 1 1 1 1 1 2 3 4 4 4 6 6 6 5 6 6 5 5 5 4
3 3 2 2 1 2 1 1 1 1 0 0 1 0 1 0 0 0 1 1 1 1 1 1 1 2 3 3 3 4 5 5 5 7 7 9 8 7 6 6 6 6 5
4 4 3 2 2 2 2 1 1 1 0 0 0 1 1 1 1 1 2 2 1 1 2 2 3 4 3 4 4 4 5 6 6 6 8 10 11 9 7 7 7 7 7
4 3 3 3 3 2 1 1 1 1 0 0 1 1 2 2 1 1 2 2 1 2 3 4 4 3 3 4 4 4 5 6 8 7 5 7 8 11 11 9 9 8 8
4 4 3 3 2 2 2 1 1 1 1 0 0 1 2 1 2 2 3 4 4 5 5 5 4 5 4 4 4 4 5 6 7 7 8 8 8 8 10 11 10 9 7
4 3 3 2 2 2 1 1 2 2 1 0 0 1 2 3 4 5 6 6 6 6 5 5 5 5 4 4 4 5 5 5 6 6 6 8 9 10 10 11 10 10 8
4 4 4 3 3 2 2 2 2 2 1 2 2 3 4 4 5 6 6 6 7 7 6 6 6 5 5 5 5 5 6 6 6 6 7 7 7 7 8 8 8 9 7
4 4 3 3 3 2 2 2 2 2 3 2 4 4 5 5 6 5 6 7 7 7 7 6 6 5 5 5 5 6 5 5 5 6 6 7 6 6 6 7 8 8 7
4 4 3 3 2 2 2 2 2 3 3 4 4 5 5 6 6 5 6 6 6 7 6 6 6 6 6 5 6 5 5 5 6 7 6 6 5 5 5 4 5 6 9
4 3 3 3 2 2 2 2 2 4 5 5 5 6 6 5 5 5 6 7 7 6 6 6 7 7 6 6 6 6 6 7 7 5 5 6 5 4 4 4 4 4 6
4 3 3 2 2 2 2 2 3 5 5 5 5 6 6 5 5 5 6 7 6 6 6 7 7 7 7 7 7 7 7 7 7 6 6 5 4 5 4 4 4 5 5
4 3 3 3 2 2 2 3 4 5 5 5 6 6 5 6 6 6 6 6 6 6 7 7 7 7 7 7 7 7 7 7 7 7 6 5 4 4 4 4 5 6 6
4 3 3 3 3 2 3 4 4 5 5 6 6 6 6 6 6 6 6 6 6 7 7 7 7 7 7 7 7 7 8 8 7 7 6 5 5 5 6 6 7 7 6
4 4 3 3 3 3 3 4 5 4 5 5 6 7 6 6 6 6 6 6 6 7 7 7 7 7 7 7 7 7 8 7 7 6 5 5 5 7 7 7 8 8 9
4 4 4 3 3 3 3 4 4 4 4 5 6 6 6 6 6 5 6 6 6 7 7 7 7 7 7 7 8 8 8 7 7 6 5 5 5 5 6 7 9 9 10
4 4 3 3 3 3 3 3 4 4 3 5 6 5 5 6 6 6 6 6 7 7 7 7 7 8 8 9 10 10 9 7 7 7 6 6 4 5 5 5 5 7 10
4 4 3 3 3 3 2 3 4 3 4 6 5 5 6 6 7 7 8 8 8 7 7 7 8 7 9 9 9 10 9 7 7 7 7 6 5 6 7 7 7 7 6
3 3 3 3 2 2 3 3 4 4 5 6 6 6 6 7 8 8 8 8 7 7 8 7 7 7 9 9 9 9 9 7 6 7 6 7 7 8 8 9 9 9 9
3 3 2 2 2 2 3 4 5 6 6 7 7 7 8 8 8 8 8 8 8 8 7 6 7 8 10 8 8 8 9 7 7 6 6 6 7 7 7 9 10 10 9
2 3 2 2 2 3 4 6 6 7 8 8 8 8 9 9 9 9 8 8 7 7 7 7 7 8 9 7 7 8 9 8 7 7 6 6 7 8 8 10 11 11 10
3 2 3 5 7 7 6 8 8 9 9 8 9 9 8 8 8 9 8 8 7 7 8 9 7 6 6 8 6 7 8 8 7 7 7 7 7 7 7 8 10 10 9
3 5 8 8 8 7 8 9 10 9 8 8 8 9 8 8 8 8 8 8 8 8 8 7 6 6 6 6 6 6 6 6 9 7 7 7 6 6 7 8 8 8 8
8 7 8 9 9 9 9 10 9 8 8 9 10 9 9 8 8 9 9 9 9 7 7 7 6 7 6 6 6 5 5 6 9 7 6 6 6 6 7 6 7 9 10
8 8 9 10 10 10 9 9 9 8 9 9 9 9 9 8 8 8 8 8 7 7 6 6 7 7 6 5 7 7 7 6 7 7 7 7 8 9 8 9 7 8 9
9 10 10 10 10 9 9 8 8 8 9 9 9 8 9 8 8 7 6 7 6 6 6 5 5 6 7 6 5 5 5 5 5 9 9 10 8 8 9 8 8 8 8
10 10 10 10 10 9 8 8 7 8 8 8 8 8 9 8 7 6 6 5 5 5 5 5 6 5 4 4 4 4 4 4 6 9 11 12 11 9 9 10 10 10 10

GFSMW_con_lsi_027.txt.gz
Lid_Strength_Index
4 3 3 3 2 2 1 1 2 2 2 1 2 2 2 2 3 3 3 3 2 2 3 3 3 4 4 5 5 5 6 6 6 7 8 8 7 7 8 7 7 7 6
4 3 3 3 2 2 2 2 2 1 1 1 1 2 2 2 3 3 3 3 3 3 3 4 4 5 5 6 6 6 7 7 7 9 9 11 9 8 7 8 8 8 7
5 4 4 4 3 2 2 2 2 1 1 1 0 3 3 4 4 4 4 3 3 3 3 4 5 5 6 6 6 6 7 8 8 8 9 11 12 11 9 9 9 9 9
4 4 4 4 3 3 2 2 1 1 1 1 4 5 4 5 4 4 4 4 3 5 6 6 7 7 6 6 6 5 7 8 9 9 7 9 10 12 13 10 10 9 9
4 4 4 3 3 2 2 1 1 1 2 3 3 4 5 5 4 5 6 7 7 6 6 6 8 8 7 8 7 7 7 8 9 9 9 10 10 10 12 14 12 10 9
5 4 3 3 3 2 2 3 4 4 5 5 5 4 5 7 8 8 8 8 6 7 6 7 7 7 7 7 7 7 8 8 8 8 8 9 10 11 12 13 12 12 10
5 5 4 4 4 5 5 6 6 6 6 7 7 7 7 8 8 8 8 7 9 9 8 8 8 8 7 7 7 7 8 8 8 8 8 9 9 9 10 11 11 12 10
5 5 6 6 6 6 6 7 6 6 6 6 8 8 8 8 8 8 8 8 8 8 8 7 9 9 7 8 7 7 7 8 8 8 8 8 9 8 9 9 11 12 11
7 6 6 6 7 7 6 7 6 6 6 8 8 8 8 8 8 8 8 8 8 8 8 8 9 8 8 8 8 8 7 7 8 7 7 8 7 6 6 7 8 9 12
7 7 6 6 6 5 4 5 5 6 7 8 8 8 8 8 8 8 7 9 9 8 8 8 8 8 8 8 8 8 8 9 9 8 8 7 7 6 6 7 8 7 8
7 6 6 5 4 4 4 4 5 7 7 7 8 8 8 7 7 7 7 8 7 9 9 8 8 9 8 8 9 9 9 8 9 8 8 8 7 7 7 7 8 7 7
6 6 6 5 4 4 4 4 7 7 7 7 8 8 7 6 7 6 7 8 8 8 8 8 8 8 8 8 9 9 9 9 9 9 9 9 7 9 8 9 9 8 8
7 6 6 5 4 4 4 5 7 7 7 8 8 8 6 6 6 7 7 7 8 8 8 8 9 8 8 9 8 8 9 9 9 9 10 9 8 10 10 9 9 9 8
5 6 6 5 5 5 5 6 7 7 8 8 8 7 6 6 6 7 7 8 7 8 9 8 8 8 8 7 8 9 9 8 8 8 8 8 9 10 9 8 9 9 10
6 6 6 6 5 5 6 6 6 7 7 7 7 6 6 6 7 7 7 7 8 8 8 8 8 8 8 8 9 8 9 10 10 9 8 8 8 6 7 8 9 10 10
6 5 5 5 5 5 6 6 7 7 6 6 6 6 6 6 7 7 8 8 8 8 8 8 8 9 8 9 8 9 11 10 9 9 10 9 7 6 5 5 6 7 10
6 5 5 5 5 5 5 6 6 5 5 5 5 6 7 7 8 9 9 9 9 8 8 8 8 8 9 8 9 10 11 9 9 9 9 8 6 7 8 7 7 8 7
5 5 5 4 4 5 5 6 5 5 6 7 7 8 9 9 8 9 9 9 8 9 9 9 8 7 8 9 9 9 10 9 8 8 8 8 9 8 8 9 9 10 10
5 5 4 5 6 6 6 7 7 7 7 8 9 9 9 9 9 9 9 8 9 9 9 8 8 8 10 8 7 8 9 9 8 7 7 7 8 7 6 9 9 10 10
6 8 8 8 9 9 8 10 10 10 10 9 10 9 8 8 9 8 8 9 8 8 8 8 8 8 8 6 6 7 10 9 9 8 8 6 8 7 7 9 10 12 10
9 9 9 10 10 9 9 10 10 10 9 9 8 9 8 8 8 8 8 8 9 9 10 9 8 7 7 8 5 5 8 9 8 8 8 8 6 6 6 6 10 11 9
9 10 10 10 10 9 9 10 10 9 9 9 9 8 8 8 8 9 9 9 9 10 9 8 7 8 7 6 5 5 6 7 9 8 8 8 5 5 5 6 7 6 7
10 10 10 11 10 10 10 10 9 8 9 9 9 8 8 8 8 9 9 10 9 10 9 8 8 7 7 7 5 5 5 6 9 8 7 5 5 5 6 5 5 7 10
10 10 11 11 11 10 10 10 10 9 9 9 9 8 8 8 8 8 8 8 10 11 9 9 9 7 6 7 8 7 6 7 7 8 8 8 8 10 9 9 7 8 9
10 11 11 11 11 10 10 10 10 9 9 9 9 9 11 9 9 8 7 8 8 8 9 9 8 10 7 5 6 7 8 9 8 11 11 10 11 10 9 10 9 10 10
10 11 12 11 11 11 10 10 9 9 9 10 10 11 11 10 8 8 8 6 6 6 5 5 6 7 5 4 4 4 4 5 5 7 13 14 15 13 10 11 11 12 11

GFSMW_con_lsi_030.txt.gz
Lid_Strength_Index
4 3 2 2 2 1 2 2 2 3 3 3 3 2 3 3 3 3 3 4 4 4 4 4 4 5 5 6 6 7 7 7 7 8 9 9 8 9 9 9 9 8 7
6 4 3 3 2 2 2 2 1 3 3 3 2 2 3 4 5 4 4 4 3 3 4 4 5 5 6 7 7 8 8 8 9 9 10 12 10 9 9 9 9 10 9
5 5 4 3 2 2 2 2 2 2 3 3 2 3 5 5 6 5 5 4 3 3 4 4 5 5 5 6 7 7 7 9 9 9 10 12 13 12 10 10 10 11 10
4 4 4 4 3 2 2 2 2 2 2 2 3 4 4 5 5 5 5 4 3 5 6 7 7 7 7 8 7 6 8 9 9 9 8 10 10 13 14 11 11 10 10
5 4 4 3 3 2 2 2 2 2 2 1 3 5 5 5 5 5 6 7 8 7 6 7 8 8 8 8 8 8 8 8 9 9 10 10 11 11 13 14 13 11 11
5 4 4 3 3 2 3 2 3 3 3 2 5 6 7 7 7 9 10 9 8 7 8 7 8 8 8 8 8 8 8 8 9 9 8 8 9 12 13 14 14 13 12
5 5 5 4 3 3 3 3 4 7 7 7 8 8 9 9 9 9 9 9 8 8 9 8 8 9 8 8 8 8 8 9 9 9 9 9 9 10 11 12 13 14 12
5 5 4 4 4 4 4 5 6 8 8 9 9 9 9 9 9 8 8 8 8 8 9 8 9 9 9 9 9 9 9 8 9 9 9 9 9 9 10 10 10 12 13
6 6 6 6 7 7 7 7 7 8 9 9 8 8 8 8 8 8 8 8 8 8 8 8 10 8 8 9 9 9 9 9 9 9 9 9 8 8 8 7 7 10 14
7 6 6 7 7 7 7 8 8 8 9 9 9 8 8 8 8 8 8 8 8 8 8 8 8 9 9 9 9 9 9 9 10 9 9 9 9 7 7 8 9 9 10
6 6 6 7 7 7 7 7 8 9 8 8 8 8 8 7 7 8 8 8 8 8 8 9 8 9 9 9 10 10 9 9 9 9 9 8 8 8 9 10 10 10 10
6 6 6 6 7 6 6 6 7 7 8 8 9 8 8 7 7 7 7 7 8 8 8 9 9 9 9 9 9 9 9 9 10 9 9 8 7 10 10 10 11 11 11
7 7 7 7 6 6 5 5 7 8 8 7 9 9 8 7 7 7 7 8 9 9 9 9 9 9 9 8 8 9 9 10 9 9 9 9 10 11 10 11 11 11 9
7 8 7 7 6 5 5 6 8 8 7 8 9 8 7 6 7 7 8 8 8 8 9 9 9 8 8 8 8 9 10 9 8 8 9 9 9 10 11 11 11 10 10
7 8 8 7 6 6 6 7 7 7 7 8 9 7 6 7 7 8 8 8 8 8 8 9 8 8 8 8 8 8 9 10 10 10 9 9 8 6 8 9 10 10 10
8 7 6 6 6 6 6 6 7 7 7 8 7 6 6 6 7 8 8 9 9 9 8 8 8 9 8 8 8 9 10 10 9 9 10 9 7 6 6 6 6 7 10
6 5 5 6 6 6 6 6 7 7 8 7 6 7 7 8 9 9 9 9 9 8 8 8 8 8 8 8 8 8 9 9 9 9 9 8 7 7 8 7 7 8 7
7 7 6 5 5 6 6 7 7 7 7 8 8 8 9 9 9 9 9 9 9 9 9 9 8 8 8 8 7 7 9 9 8 8 8 9 9 8 8 9 9 9 9
9 9 9 8 8 8 8 9 10 10 10 10 9 9 10 9 8 9 9 9 9 9 9 8 8 8 8 6 6 7 9 9 8 7 7 8 9 7 6 8 9 9 9
9 10 10 10 10 10 10 11 11 11 11 10 9 9 9 9 9 10 9 9 9 9 9 8 8 7 7 5 5 7 10 9 9 8 8 6 8 6 6 9 9 11 10
10 10 10 11 10 9 9 10 10 10 9 8 8 8 8 8 8 8 9 9 10 9 10 9 9 8 7 8 5 5 9 8 8 8 9 8 6 6 5 5 9 10 8
10 10 11 10 9 9 9 9 9 9 8 8 8 8 8 8 8 9 9 9 10 10 10 11 9 9 7 6 6 5 6 7 8 8 8 8 6 5 5 6 6 5 7
12 11 11 10 10 10 10 11 10 9 9 10 10 10 9 8 8 10 10 11 10 12 10 9 10 9 8 7 6 5 5 6 8 7 7 6 5 5 5 5 5 7 10
11 11 11 11 10 10 10 11 11 11 11 11 11 10 10 10 10 10 10 10 12 11 9 9 9 10 9 8 8 7 6 6 7 7 7 8 8 10 9 9 7 8 9
11 10 11 11 11 11 11 11 11 11 12 11 11 10 12 11 10 10 9 9 9 9 9 9 9 11 10 8 6 7 7 6 7 8 11 11 11 10 9 10 9 10 11
11 11 11 11 12 12 12 11 11 11 11 11 11 12 12 12 10 10 9 7 7 6 6 6 7 8 6 6 5 4 4 5 5 8 9 9 10 11 10 11 11 12 12

GFSMW_con_lsi_033.txt.gz
Lid_Strength_Index
4 3 2 2 2 3 3 2 3 3 3 4 4 4 4 3 3 3 4 5 4 4 4 5 5 5 6 6 6 7 8 8 9 10 9 9 9 9 9 10 10 10 9
5 4 3 3 2 3 3 3 2 3 3 3 3 3 3 4 4 5 6 5 5 4 4 5 5 6 6 7 7 7 8 8 9 10 11 12 11 10 9 11 10 11 10
5 5 4 3 3 3 3 2 2 3 3 3 3 5 5 6 7 7 7 6 5 4 4 5 6 6 6 7 8 7 8 9 8 9 10 12 13 12 11 11 11 12 11
5 4 4 4 3 3 2 2 2 2 3 3 3 4 5 5 7 7 7 6 5 6 7 7 8 8 8 8 8 7 8 9 10 10 8 10 11 13 13 12 12 12 11
5 5 4 3 3 3 2 2 2 2 2 3 3 4 5 6 7 7 6 9 8 7 7 7 7 7 8 9 9 8 8 9 10 10 10 11 11 12 13 15 13 12 11
6 5 4 3 3 3 2 2 2 2 2 3 4 5 6 7 7 8 9 9 9 9 8 8 8 7 8 9 8 9 9 9 9 9 10 10 11 12 13 14 14 14 12
6 5 4 4 3 3 3 2 2 3 3 3 5 6 7 7 7 8 10 10 10 10 8 8 8 8 8 7 7 9 9 9 10 10 10 10 10 10 11 12 13 13 13
5 5 4 4 3 3 3 2 3 6 6 6 7 8 7 7 7 7 8 9 9 9 8 8 8 8 8 8 10 10 9 9 10 9 9 10 10 10 10 11 11 10 10
6 5 4 4 3 3 3 4 6 8 9 9 9 10 9 9 8 8 9 8 8 8 8 8 8 8 8 10 10 10 10 9 9 9 9 9 8 9 8 8 8 8 12
6 5 4 5 5 6 7 7 8 9 10 10 9 9 9 8 8 9 8 8 8 8 8 8 8 8 9 9 10 10 9 9 10 10 9 9 8 8 8 8 8 9 11
6 5 5 5 6 7 8 8 9 10 10 10 10 9 10 9 9 8 8 8 8 8 8 8 8 9 9 9 9 10 10 10 10 10 10 9 8 8 8 9 10 10 10
5 5 6 7 8 7 8 8 8 10 10 9 9 8 9 9 8 8 8 8 8 8 8 8 9 9 9 9 10 10 9 10 10 9 9 9 7 8 9 10 10 11 11
7 7 7 7 7 8 8 8 8 9 9 8 8 9 8 8 8 8 8 8 9 9 9 9 9 9 9 9 9 10 10 10 10 9 9 9 9 10 10 10 11 11 9
7 7 8 7 7 7 8 8 8 9 8 7 8 8 8 7 7 7 8 8 8 9 9 9 8 8 9 9 9 9 10 10 9 8 8 9 9 9 10 10 10 10 11
7 8 8 8 8 7 7 8 8 7 7 8 8 7 7 7 7 7 8 8 8 8 8 8 8 8 8 9 9 9 9 10 10 9 8 8 8 6 8 10 10 11 11
7 7 8 7 7 7 7 8 8 7 8 8 7 7 7 8 8 8 8 9 9 9 9 8 9 9 8 8 7 9 10 9 9 9 9 9 6 6 5 5 6 8 10
7 6 6 6 6 6 6 7 8 8 8 7 7 8 9 10 9 9 9 9 9 9 9 9 9 9 8 8 7 7 9 9 9 9 9 9 8 7 7 6 7 7 7
9 9 9 7 6 7 8 8 8 9 9 10 10 10 9 9 9 9 9 8 9 9 9 9 9 9 9 7 6 7 9 9 9 8 9 9 9 8 8 9 9 9 8
10 11 11 10 10 10 10 11 12 11 11 11 10 9 9 8 9 9 10 9 9 9 9 9 10 10 9 7 6 7 9 9 9 8 8 8 9 7 6 9 9 9 9
10 11 11 11 11 11 10 11 11 11 11 10 9 9 8 9 10 9 9 9 9 9 10 10 9 9 9 7 5 6 10 9 9 9 8 6 8 7 6 9 10 10 9
11 10 10 11 11 10 10 10 9 9 8 7 7 8 8 9 9 9 9 9 10 10 11 10 10 10 9 8 6 5 8 9 9 9 9 8 6 6 5 6 9 9 8
11 11 11 11 10 10 9 9 10 9 8 8 9 9 9 9 10 11 10 10 10 11 11 12 11 10 9 7 6 5 5 7 8 9 8 8 6 5 5 6 6 5 7
13 12 12 11 10 10 9 10 10 10 10 11 12 12 11 11 11 11 11 11 11 12 12 11 11 10 9 9 6 5 5 5 7 7 7 6 6 5 6 5 5 7 10
13 12 11 11 11 11 11 11 11 12 12 13 13 12 13 12 11 10 10 11 12 12 11 10 10 10 9 9 9 8 8 6 6 7 7 7 6 8 7 9 7 9 9
11 11 11 11 11 11 11 12 12 12 13 13 13 13 13 12 11 10 10 10 10 10 10 10 9 10 9 8 7 7 9 8 6 6 8 8 8 9 8 10 9 10 11
11 11 11 12 13 13 13 13 12 13 13 13 13 13 12 11 11 11 10 8 8 7 7 6 7 7 6 6 5 5 5 5 5 7 9 8 9 9 9 10 9 11 12

GFSMW_con_lsi_036.txt.gz
Lid_Strength_Index
4 3 3 2 2 2 2 3 3 4 4 3 4 5 5 5 5 4 4 3 4 5 6 6 6 6 7 7 7 7 8 8 9 9 9 9 9 9 10 10 10 9 9
5 4 3 3 2 2 2 3 3 4 4 3 4 4 5 5 5 5 5 5 6 5 6 6 6 7 7 7 7 8 8 8 9 10 11 12 10 10 10 10 10 10 10
6 5 4 3 3 2 2 3 3 4 4 4 4 5 6 7 6 7 7 6 6 5 5 6 6 7 7 8 8 8 8 9 9 9 10 12 13 12 10 10 11 11 11
5 4 4 4 3 3 2 3 3 4 3 3 3 5 4 6 7 7 7 7 7 7 7 8 8 8 8 9 8 8 8 9 9 9 9 10 10 12 13 11 11 11 11
6 5 4 3 3 3 3 3 3 4 2 3 3 4 5 5 6 8 8 10 10 9 9 9 9 9 9 8 7 7 7 8 9 10 10 10 11 11 12 14 13 11 11
7 5 4 3 3 4 4 3 3 3 3 3 4 4 6 7 7 8 10 10 10 10 9 9 9 9 9 8 8 9 9 9 9 9 10 10 11 11 13 14 13 13 11
7 7 6 4 4 4 4 3 3 3 3 3 4 5 5 6 6 8 9 10 11 10 10 9 9 9 8 8 8 8 8 9 10 10 10 9 10 10 11 12 13 12 10
6 6 5 4 4 4 3 3 3 2 2 3 3 4 4 6 6 7 9 9 10 9 9 9 8 8 7 8 9 9 10 9 9 10 10 9 9 9 10 11 12 10 8
6 6 5 4 3 3 3 3 3 2 3 3 4 6 6 6 7 8 8 9 9 9 9 8 8 8 8 8 8 9 10 9 9 9 9 9 9 9 9 8 8 7 10
6 5 5 4 3 3 3 3 2 3 5 6 6 7 8 7 7 8 9 9 10 9 8 8 8 8 8 8 9 9 9 9 10 10 10 10 9 9 8 7 7 6 7
6 5 5 4 3 3 4 4 5 7 9 9 10 10 9 8 7 7 9 9 8 8 8 9 8 8 8 9 10 9 10 10 10 10 10 10 9 8 8 8 8 8 8
6 5 5 5 6 6 6 6 8 9 10 9 9 9 8 8 8 9 9 9 8 8 8 8 8 8 9 9 10 10 9 10 10 10 10 9 7 8 8 8 9 9 9
6 6 6 6 6 7 7 8 9 10 10 9 8 8 9 9 10 9 8 8 8 8 9 8 8 9 9 9 9 10 10 10 10 10 10 9 9 9 9 9 9 9 9
6 6 7 7 7 7 7 8 9 9 9 9 9 10 9 8 8 9 9 9 8 9 9 8 8 9 9 9 9 9 9 9 9 9 9 8 9 9 9 9 9 10 10
7 7 7 8 7 8 8 8 9 9 9 9 10 10 8 9 9 9 8 8 8 8 8 9 8 8 9 9 9 9 9 9 9 9 8 8 8 6 7 9 10 10 11
7 8 8 7 7 7 7 8 9 9 9 9 10 9 9 9 9 9 9 9 9 8 8 8 9 9 9 9 8 9 9 10 9 10 9 9 6 6 5 5 7 9 10
9 9 8 7 7 6 6 7 8 8 9 9 9 10 10 10 10 10 9 8 9 8 9 9 9 9 9 9 8 7 9 9 10 10 9 9 8 7 8 6 6 7 6
11 11 11 10 9 8 8 8 9 9 10 11 11 10 9 9 9 9 9 9 9 9 10 9 9 10 9 8 8 7 9 10 10 9 9 9 9 8 8 9 9 9 9
11 11 11 11 11 11 11 11 11 10 11 10 10 9 8 9 9 9 9 9 9 9 9 9 10 10 10 8 7 7 9 10 10 9 8 8 9 7 6 9 10 9 9
11 11 11 11 12 11 11 11 11 10 10 9 8 8 8 8 9 9 9 9 9 10 11 11 11 10 10 8 7 7 11 10 9 8 7 6 7 7 6 8 9 10 9
11 11 11 12 12 11 10 10 10 10 9 8 8 8 8 8 8 9 10 10 11 12 12 12 11 10 10 9 7 7 9 8 8 8 7 7 6 5 5 6 9 9 8
12 11 11 11 11 10 10 11 10 9 9 8 9 9 10 11 11 12 12 12 13 13 12 12 11 10 10 9 8 6 6 6 8 8 8 7 6 5 5 5 6 6 7
13 12 12 12 12 12 11 12 11 11 11 12 13 13 12 12 13 13 13 13 13 14 12 11 11 10 10 10 7 6 5 5 7 7 7 6 5 5 5 5 5 6 7
13 12 12 12 13 12 12 12 11 12 13 13 13 13 13 13 13 13 13 13 13 13 11 11 10 10 10 10 9 8 8 8 7 7 6 6 6 6 5 6 5 5 7
12 11 12 13 13 13 13 13 13 13 14 13 13 13 14 14 14 13 12 12 11 10 10 10 10 9 9 7 6 7 9 9 8 9 6 6 7 7 7 7 7 7 8
12 12 13 14 14 14 15 14 14 14 14 13 14 14 15 15 14 13 12 9 8 8 7 7 7 7 5 5 5 5 5 5 5 7 7 8 8 8 7 7 7 7 8

GFSMW_con_lsi_039.txt.gz
Lid_Strength_Index
3 2 2 1 1 1 1 1 1 0 0 1 1 1 1 0 0 0 0 0 1 2 2 3 3 3 3 3 3 3 3 4 3 4 5 4 5 5 5 5 5 5 5
4 3 3 2 2 1 1 1 1 0 0 0 0 -0 0 0 1 1 1 1 1 2 2 3 4 3 3 3 3 3 4 3 4 5 5 7 6 5 5 5 5 5 5
5 4 3 3 2 2 1 1 1 0 0 0 0 1 2 2 3 3 3 2 2 2 3 3 3 3 3 4 4 4 4 6 5 5 5 8 8 6 5 5 5 5 5
4 4 3 3 2 2 1 1 1 1 1 1 1 1 1 2 2 3 3 3 3 4 4 4 4 5 5 5 5 5 4 5 6 6 5 5 5 7 8 5 5 5 6
4 4 4 3 2 1 1 1 1 1 1 1 1 1 1 1 3 4 4 5 4 4 5 5 5 6 5 5 5 5 5 6 7 5 5 5 5 5 7 9 7 6 6
4 3 3 2 2 2 1 1 1 1 1 2 1 2 1 3 4 5 6 6 6 6 6 6 6 6 6 6 6 6 7 7 5 4 5 6 6 7 7 8 8 8 7
4 4 4 3 3 2 2 1 1 2 2 2 2 2 2 3 4 5 6 8 7 7 7 6 7 7 6 7 7 7 6 5 5 5 5 5 5 5 6 7 8 8 7
4 4 4 3 3 3 2 2 2 2 2 2 2 2 2 3 3 4 6 7 7 7 7 7 6 6 6 6 8 7 6 5 5 5 5 5 5 5 6 6 7 8 7
4 4 3 3 3 2 2 2 2 2 2 1 1 2 2 3 3 5 6 6 6 7 7 6 6 6 8 7 7 6 6 5 5 5 5 5 5 5 5 5 5 6 9
5 4 3 3 2 2 2 1 1 2 1 1 1 2 2 2 3 6 7 6 6 7 7 6 6 7 6 8 6 6 6 6 5 5 6 6 6 5 4 4 4 4 6
4 4 4 3 2 2 2 2 2 2 1 2 2 2 3 3 4 5 5 7 7 6 7 6 7 8 6 6 6 6 6 6 6 6 6 6 6 6 5 3 3 4 5
4 4 4 3 3 3 2 2 2 2 2 3 4 4 4 5 6 6 6 6 6 6 6 6 7 7 7 6 6 7 7 7 7 7 7 7 6 6 4 4 4 4 4
4 4 4 4 3 3 3 3 3 3 5 5 5 5 6 5 5 5 5 6 6 6 7 7 8 7 6 6 7 7 6 7 7 7 7 6 6 4 4 4 4 4 4
5 5 4 4 4 4 3 4 5 6 6 6 6 6 6 6 5 6 7 7 7 7 7 7 7 7 7 7 7 7 7 7 7 6 6 5 4 4 4 4 4 4 5
5 5 5 4 4 5 5 5 6 7 7 7 7 7 7 7 7 7 8 8 8 8 8 7 7 7 7 7 7 7 7 7 7 6 5 4 4 5 4 5 4 4 5
7 6 6 5 5 5 4 5 6 6 5 6 7 7 8 8 8 8 9 9 9 7 7 8 8 8 7 9 9 9 8 7 7 6 5 4 5 5 6 6 6 5 5
8 8 7 6 6 5 4 4 5 5 5 6 6 7 8 9 10 9 8 8 8 8 8 8 8 8 8 9 9 9 7 6 5 5 5 5 6 6 5 5 5 6 7
9 9 8 8 8 7 6 6 6 7 7 7 8 8 8 8 8 8 7 8 8 8 8 7 8 8 8 10 10 10 6 6 5 5 4 4 4 4 5 5 5 5 5
10 10 9 9 8 8 7 7 7 7 8 8 8 7 8 7 7 8 8 7 7 7 8 8 9 8 8 10 10 8 6 6 5 5 5 5 4 4 5 5 6 5 5
9 9 9 9 9 8 8 8 8 8 8 8 7 7 6 6 7 7 8 8 9 9 8 8 8 9 9 9 9 8 6 7 6 5 5 6 4 5 5 5 5 6 5
9 9 9 9 8 8 7 8 8 8 8 7 7 7 8 8 8 8 8 8 8 8 9 9 9 8 8 7 8 7 6 6 6 6 5 3 5 5 5 5 5 5 4
9 9 9 9 8 8 8 9 9 8 8 9 10 10 9 10 10 10 9 9 9 9 9 10 9 8 7 8 7 7 7 6 6 5 4 3 5 5 5 5 5 5 6
10 9 9 10 10 9 9 10 10 10 11 11 11 11 11 11 10 10 10 10 10 10 10 10 9 8 7 6 7 7 7 6 5 3 3 4 5 5 5 5 4 5 5
10 10 11 11 12 11 11 11 11 11 11 11 11 11 11 11 11 10 10 10 11 11 11 10 10 9 8 7 6 6 4 5 5 5 4 4 5 5 5 5 4 4 4
11 11 11 12 12 12 12 12 12 12 12 12 13 13 13 13 12 12 12 12 11 11 11 11 10 10 10 9 7 7 6 4 4 5 5 5 5 5 6 5 4 4 4
11 12 12 13 14 14 15 14 13 14 14 14 14 15 14 14 13 14 13 12 13 12 11 10 10 9 9 10 9 8 7 5 5 5 5 5 5 5 5 6 5 4 5

GFSMW_con_lsi_042.txt.gz
Lid_Strength_Index
3 2 2 1 1 0 0 0 0 -0 -0 0 1 0 0 -0 -0 -1 -1 -1 -2 -2 -2 -1 -0 -0 0 1 1 1 2 3 2 3 3 3 3 4 3 3 3 3 3
3 3 2 1 1 1 1 1 0 0 -0 -0 -0 -0 -0 -1 -1 -1 -1 -1 -2 -1 -1 -1 0 0 1 2 1 2 3 2 2 3 4 4 4 4 4 3 3 3 3
4 3 3 2 1 1 1 1 0 0 -0 -0 -0 -0 -1 -0 0 -0 -0 -1 -1 -1 -1 -0 0 1 1 2 2 3 4 4 3 3 5 6 7 5 4 3 3 4 3
3 3 3 2 2 1 0 0 0 0 -0 -1 0 0 1 1 1 0 -0 -1 -1 -1 0 0 1 1 1 2 3 4 3 4 5 5 5 5 5 7 6 4 4 3 4
3 3 3 2 1 1 1 0 0 0 -0 -0 -0 0 1 0 -0 -0 -0 0 0 1 1 1 1 2 2 3 4 3 4 5 5 5 5 4 4 4 6 7 6 5 4
3 3 2 2 2 1 1 1 1 1 0 0 0 1 1 1 1 1 1 1 1 2 3 2 2 2 3 3 4 3 4 6 5 5 4 5 5 5 6 7 6 6 5
3 3 3 2 2 2 1 1 1 1 1 1 1 1 1 1 1 1 1 3 3 3 4 3 3 4 4 4 4 5 5 6 4 4 4 4 4 5 5 6 7 7 6
3 3 3 2 2 2 1 1 2 2 1 1 1 0 0 1 1 0 0 2 4 4 5 4 4 5 4 5 5 6 6 4 5 4 4 4 4 4 5 6 7 8 7
3 3 2 2 2 2 2 1 1 1 1 1 1 1 0 1 1 0 1 3 4 5 6 5 5 5 5 6 7 6 6 5 4 4 4 4 4 5 5 5 6 7 9
3 3 2 2 2 1 1 1 1 1 1 1 1 1 0 0 0 1 2 4 4 5 5 5 5 5 6 6 7 7 5 5 4 5 5 5 5 5 5 5 6 5 6
4 3 3 2 2 1 1 1 1 1 1 1 1 1 0 0 1 1 1 2 3 4 6 6 5 6 6 6 6 5 6 5 6 5 6 6 5 5 6 6 5 5 4
3 3 3 3 2 2 2 2 1 1 1 1 1 1 1 1 1 2 2 3 4 6 5 4 6 6 5 6 6 6 6 5 5 5 5 6 6 5 5 5 5 4 3
3 3 3 3 3 2 2 2 1 1 1 1 1 1 1 2 3 4 4 5 6 5 5 5 6 7 6 6 6 6 6 6 5 5 5 6 5 6 5 4 4 4 4
3 4 3 3 3 2 2 2 2 1 2 2 2 3 3 2 2 3 3 4 5 5 7 7 6 6 7 7 6 6 7 7 5 5 5 5 5 5 4 4 3 4 4
4 4 4 3 3 3 2 2 2 2 2 3 3 3 3 3 4 4 4 4 4 5 7 7 7 6 6 7 6 6 7 7 6 5 5 5 4 4 4 4 3 3 4
5 4 4 3 3 3 3 3 3 3 3 4 4 4 4 5 6 6 6 8 8 7 8 6 7 7 6 9 9 9 8 6 6 6 5 4 4 4 5 6 5 4 3
4 4 4 4 3 2 2 2 2 2 2 3 3 4 5 6 6 7 8 8 7 7 7 7 6 6 6 9 9 9 7 6 6 6 5 5 4 4 3 5 6 6 5
6 5 5 4 3 3 3 3 3 3 3 4 4 5 5 6 6 6 6 7 7 7 6 6 6 5 6 9 9 9 7 6 6 5 5 4 3 3 3 3 3 2 2
5 5 5 4 4 4 4 4 4 4 4 5 5 5 5 5 6 6 6 5 5 5 6 7 8 8 7 8 9 9 7 7 6 6 5 4 4 4 4 3 2 2 2
5 6 5 5 5 4 3 4 5 5 5 5 5 5 5 5 6 6 7 8 8 8 7 7 6 7 6 8 9 9 7 7 7 5 5 6 5 5 5 3 3 3 3
6 6 5 5 5 4 4 5 5 6 5 5 6 6 7 8 8 7 7 7 7 7 7 7 7 7 7 7 9 9 8 7 6 6 5 4 5 5 4 4 3 3 2
6 5 5 5 5 5 5 6 8 7 6 7 8 8 8 9 9 9 8 8 8 8 8 8 8 7 6 8 8 9 9 8 7 6 4 3 4 4 4 4 4 4 4
6 6 6 6 6 6 6 7 8 8 8 9 9 9 9 9 9 9 9 9 9 9 9 10 9 9 9 9 10 9 9 8 6 5 5 5 5 4 4 5 5 5 3
6 6 7 8 8 8 8 8 8 8 9 9 10 10 10 10 10 10 10 11 11 11 11 11 11 11 10 10 11 11 9 9 7 7 5 5 5 5 4 4 3 4 3
7 7 8 9 9 9 9 9 9 9 10 10 11 12 12 12 12 12 12 12 11 13 13 12 12 12 12 13 13 12 11 10 9 8 6 6 5 5 4 3 3 3 3
8 8 9 10 11 11 11 11 11 11 12 13 13 13 12 12 12 13 12 14 14 14 14 14 13 12 13 14 13 12 11 10 9 7 6 6 5 4 3 3 4 4 4

GFSMW_con_lsi_045.txt.gz
Lid_Strength_Index
3 2 2 1 1 1 1 0 1 -0 -0 0 1 0 1 -0 -0 -1 -1 -1 -1 -1 -1 -1 -1 -1 -1 -1 -1 1 2 2 2 3 2 1 2 2 3 3 3 3 3
4 3 2 1 1 1 1 1 0 0 0 -0 -0 -0 -0 -0 -0 -1 -1 -1 -1 -1 -1 -1 -1 -1 -0 -1 -0 1 2 2 2 2 3 4 3 3 3 3 3 3 3
4 3 3 2 1 1 1 1 0 0 0 -0 -0 -0 -0 -0 0 -0 -0 -1 -1 -1 -1 -1 -1 -1 -1 0 0 1 2 3 2 2 4 6 6 5 3 3 3 2 3
3 3 3 2 2 1 0 0 0 0 0 -0 0 0 1 2 1 0 -0 -0 -1 -1 -1 -1 -1 -1 -0 0 1 1 2 2 3 3 4 4 4 6 6 3 3 3 3
3 3 3 2 1 1 1 0 0 0 -0 -0 -0 1 1 0 0 0 0 0 -1 -1 -1 -1 -1 -0 0 0 1 2 2 2 4 4 4 4 3 3 5 6 5 3 4
3 3 2 2 2 1 1 1 1 1 0 0 0 0 1 1 1 1 1 1 -0 -0 -1 -0 -0 -0 1 1 2 2 3 4 4 5 5 4 5 5 5 6 5 5 4
3 3 3 2 2 2 1 1 1 1 0 1 1 1 1 1 2 1 1 1 1 0 -0 0 1 2 3 2 3 4 4 5 6 5 4 4 4 4 5 6 6 7 5
3 3 2 2 2 2 1 1 1 1 1 1 1 1 1 1 1 1 1 1 1 1 0 2 4 4 4 4 4 5 5 6 6 6 4 4 4 4 5 6 7 8 7
3 3 2 2 2 2 1 1 1 1 1 1 1 1 1 1 1 1 0 1 1 1 2 4 5 5 5 4 4 6 7 5 5 5 3 4 4 4 4 5 5 7 9
3 3 2 2 2 1 1 1 1 1 1 1 1 1 1 0 0 0 1 1 1 3 4 5 5 5 4 5 6 6 6 6 4 5 5 4 4 5 5 5 5 6 7
3 3 2 2 2 1 1 1 1 1 1 1 1 1 0 0 0 1 0 1 2 3 4 4 4 5 5 6 6 7 6 5 5 5 5 5 5 5 5 5 6 6 6
3 3 2 2 2 2 2 1 1 1 1 1 1 1 1 0 1 1 1 1 2 2 3 5 6 5 6 7 7 6 6 6 6 6 6 6 5 5 5 5 5 5 5
3 3 3 3 2 2 2 2 1 1 1 1 1 1 1 2 2 3 3 3 3 4 5 5 5 6 6 6 6 7 7 7 7 7 6 5 5 5 5 5 4 5 5
3 3 3 3 2 2 2 2 2 1 1 1 1 1 2 2 2 3 4 5 5 5 5 6 7 6 7 7 6 6 7 6 6 6 5 4 5 5 4 4 4 4 4
3 3 3 3 3 3 2 2 2 1 1 1 1 1 2 2 2 2 3 4 4 5 7 7 6 6 7 7 6 6 6 6 6 6 5 4 5 5 5 4 4 3 4
4 4 3 3 3 3 2 2 2 1 1 2 3 3 3 4 4 4 4 4 5 5 6 8 7 7 6 8 8 8 6 7 7 7 5 5 6 5 7 7 6 5 4
4 4 3 3 3 2 2 3 3 2 3 3 3 3 3 4 5 5 5 6 5 5 6 6 6 6 5 9 9 9 7 7 7 6 6 6 6 6 5 6 7 6 6
4 3 3 3 2 2 2 2 2 2 3 3 3 3 4 5 5 4 5 5 5 5 6 6 5 5 6 9 9 10 7 6 6 6 6 6 6 5 5 4 3 3 2
3 3 2 3 3 3 2 3 3 3 3 4 3 3 3 4 4 5 5 5 5 5 6 7 7 7 6 9 9 9 7 7 7 7 6 6 6 6 6 5 4 3 2
3 3 2 2 2 3 3 3 4 3 4 4 4 4 4 4 5 5 5 6 6 6 6 6 6 8 7 9 9 9 7 8 8 7 6 7 7 7 7 4 4 4 2
3 3 3 3 3 3 3 4 3 4 4 4 4 5 5 5 5 6 6 7 7 7 7 8 7 7 7 7 10 10 9 9 9 9 8 7 7 7 6 6 4 4 2
4 3 4 4 3 3 3 4 5 4 4 5 6 6 7 8 8 8 8 8 8 8 8 8 8 7 7 10 10 10 11 11 10 10 8 7 7 7 6 6 5 5 5
4 4 4 4 4 3 4 5 5 5 6 7 8 8 8 8 8 8 8 8 9 9 10 10 10 10 9 9 11 11 12 12 11 10 10 9 8 7 6 6 5 5 4
4 4 4 5 5 4 5 5 6 6 7 8 8 8 9 9 9 10 10 10 10 11 12 12 12 11 11 11 12 13 12 12 11 11 9 9 9 8 7 6 4 4 4
4 4 5 5 6 6 7 7 7 7 8 9 9 10 11 11 11 11 11 12 12 13 13 12 13 13 13 13 15 14 14 12 12 12 9 7 6 5 5 4 4 3 3
5 5 6 7 7 8 8 8 8 8 10 11 12 11 11 11 12 12 12 14 14 15 15 15 15 14 15 15 15 14 14 13 11 10 9 8 7 7 7 5 5 3 3

GFSMW_con_lsi_048.txt.gz
Lid_Strength_Index
4 3 2 2 1 1 1 2 3 2 0 1 1 1 1 1 0 -0 -0 -0 -0 -0 0 0 0 0 1 1 1 1 3 4 4 6 5 4 4 4 5 5 5 5 5
4 3 3 2 2 2 1 1 1 1 1 0 0 1 1 0 0 -0 -0 -0 -0 -0 -0 0 0 0 1 1 1 2 3 4 4 5 5 6 6 5 4 5 5 5 5
5 4 3 3 2 2 2 1 1 1 0 0 0 0 0 0 1 1 1 0 -0 -0 -0 0 0 0 0 1 1 2 3 5 5 5 6 8 8 8 5 5 5 5 5
4 4 4 3 3 2 1 1 1 1 0 0 1 1 2 2 1 1 0 0 -0 0 -0 -0 0 0 1 1 2 2 3 4 6 5 5 5 5 9 10 7 6 5 5
4 4 4 3 2 2 2 1 1 1 1 1 1 1 2 1 1 1 1 1 0 -0 -0 -0 0 1 0 1 2 2 3 4 5 5 6 5 5 6 8 10 8 5 6
4 3 3 2 2 2 2 1 1 1 1 1 1 1 2 2 2 2 2 1 1 0 0 0 0 1 1 1 2 3 4 6 6 6 6 7 7 7 7 8 8 8 6
4 4 3 3 3 2 2 2 2 2 1 1 1 1 1 1 2 2 2 2 1 1 1 0 1 1 1 3 4 4 5 6 7 7 7 6 6 6 7 7 8 9 7
4 4 3 3 3 2 2 2 2 2 1 1 1 1 1 1 1 1 1 1 1 1 1 1 1 3 4 5 5 5 6 7 7 8 6 7 7 5 5 7 8 10 9
4 4 3 3 3 2 2 2 2 2 1 1 1 1 1 1 1 1 1 1 1 1 2 2 4 4 5 5 6 6 7 7 7 6 7 7 5 5 5 6 7 9 12
3 3 3 3 2 2 2 2 2 2 1 1 1 1 1 1 1 1 1 1 1 1 3 4 5 5 5 5 6 7 7 7 7 7 7 6 6 5 5 7 7 8 9
4 3 3 2 2 2 2 2 2 2 2 1 1 1 1 1 1 1 1 1 1 3 5 5 6 6 6 6 6 7 7 7 7 6 6 6 6 6 7 7 7 8 8
3 3 3 3 3 2 2 2 2 2 2 1 1 1 1 1 1 1 2 2 4 4 4 4 5 6 6 6 7 8 7 7 6 6 6 6 6 7 6 7 8 8 8
3 3 3 3 3 3 2 2 2 2 2 2 2 2 2 2 2 3 3 3 3 4 5 5 6 6 7 7 8 7 7 6 6 6 6 6 6 6 6 6 7 7 6
4 3 4 3 3 3 3 2 2 2 2 2 2 3 3 3 4 4 5 5 6 7 7 6 6 7 8 7 7 7 7 7 7 6 6 6 6 6 6 6 7 7 7
4 3 3 4 3 3 3 2 2 2 2 2 3 4 4 2 3 4 4 5 6 6 8 8 8 7 8 7 7 7 7 8 8 7 6 6 6 6 6 6 8 8 8
4 4 3 3 3 3 3 3 2 2 2 3 3 3 3 3 3 4 4 5 6 7 7 7 8 8 7 8 8 8 7 7 7 8 7 7 6 6 7 7 7 7 8
4 4 4 4 3 3 3 3 2 2 2 3 4 4 5 6 6 6 6 6 7 7 7 7 7 7 7 9 9 10 8 8 8 8 8 7 7 8 7 8 8 8 8
4 4 4 3 3 3 3 3 3 3 4 5 5 5 5 6 5 6 6 6 6 6 7 7 6 6 8 9 9 9 8 8 8 8 8 9 9 8 8 9 9 9 7
4 3 3 3 3 3 3 3 4 4 4 5 5 5 5 5 5 5 6 5 5 6 6 7 7 8 7 10 9 9 9 9 10 8 9 8 9 8 8 9 9 9 8
3 3 3 3 3 3 3 4 5 5 5 5 5 4 4 4 5 5 6 6 6 6 7 7 7 9 9 10 10 10 11 12 12 11 10 10 10 9 9 10 10 10 8
3 2 3 3 3 3 3 4 4 5 4 4 4 4 4 5 5 6 6 6 7 8 9 10 9 9 11 11 11 11 13 14 14 14 13 13 11 10 10 10 11 10 8
3 3 3 3 3 3 4 5 5 5 4 5 5 5 5 6 7 8 8 9 9 10 11 11 12 11 12 12 12 13 13 13 15 15 14 13 11 11 11 10 9 8 7
4 3 3 4 3 3 4 5 5 5 5 6 7 8 8 8 8 9 9 10 10 12 13 14 13 13 13 13 14 14 14 14 15 14 13 13 11 11 10 8 8 8 8
4 4 4 5 5 4 4 5 5 5 7 8 9 9 9 10 10 11 11 11 13 14 14 14 15 15 14 16 16 16 16 15 15 15 14 14 12 11 9 8 7 6 6
4 4 5 5 5 5 5 5 6 7 8 8 9 11 11 12 12 14 14 15 15 15 15 16 16 17 17 17 17 17 17 17 15 16 15 13 13 12 11 10 9 7 8
4 4 5 5 6 6 7 7 7 8 9 11 12 13 13 13 13 14 15 14 15 15 16 16 17 16 16 17 17 16 15 15 14 15 15 15 14 13 12 11 10 9 9

GFSMW_con_lsi_051.txt.gz
Lid_Strength_Index
4 3 2 3 3 3 4 4 4 4 2 2 3 4 3 2 2 1 0 0 -0 -0 0 1 1 1 2 2 2 3 4 5 6 7 7 7 6 6 6 6 7 6 7
5 4 3 2 2 2 3 3 3 3 3 1 3 3 2 1 1 0 1 -0 -0 -0 0 1 2 2 2 2 2 4 5 5 6 8 7 8 7 6 6 7 7 7 7
6 4 4 3 3 3 3 3 3 3 2 0 1 1 1 2 2 2 1 0 -0 -0 0 1 1 2 2 2 3 4 5 6 6 6 7 9 9 9 8 7 7 7 7
5 4 4 3 3 3 2 2 3 2 1 0 1 1 2 3 2 2 1 0 0 0 0 1 1 2 2 2 3 3 4 4 6 6 6 7 7 10 10 7 6 7 7
5 5 4 3 3 3 3 2 1 1 1 1 1 1 2 2 2 2 1 1 1 1 0 1 1 2 1 2 2 3 4 4 5 6 6 7 6 6 8 11 8 7 8
5 4 3 3 3 3 2 2 2 2 1 1 1 1 2 2 3 2 1 1 1 1 0 -0 1 1 2 2 2 3 4 5 5 6 6 7 7 7 7 9 10 9 9
5 5 4 4 3 3 3 2 2 2 1 1 1 1 2 2 2 2 2 2 2 3 1 0 2 2 2 2 3 4 5 6 6 6 6 7 7 6 7 10 11 9 9
5 5 4 4 3 3 2 2 2 2 2 2 1 1 1 1 1 1 3 2 2 2 1 2 2 3 3 4 5 5 6 6 6 7 7 6 7 7 7 8 8 11 11
5 4 4 3 3 3 3 2 2 2 2 1 1 1 1 1 1 2 2 2 3 3 3 2 3 3 5 5 6 6 6 6 7 8 6 7 7 6 6 5 7 9 13
5 4 4 3 3 2 2 2 2 2 2 2 1 1 1 2 2 2 3 3 3 3 3 3 3 5 6 6 6 6 7 7 7 7 7 6 5 5 5 5 7 8 10
6 5 4 3 3 3 2 2 2 2 2 2 1 2 3 3 2 2 2 2 3 4 4 5 5 5 6 6 7 7 7 7 7 7 7 7 6 6 6 7 8 9 9
6 5 5 5 4 3 3 3 2 2 2 2 2 2 2 2 2 3 3 3 3 4 5 5 5 6 6 7 8 8 7 7 8 8 7 7 6 7 8 8 8 9 8
6 5 5 4 4 4 3 3 2 2 2 1 2 2 2 2 3 3 4 4 5 5 5 5 5 6 7 7 7 8 7 6 7 7 7 7 7 7 7 6 7 6 6
6 5 5 5 4 4 4 3 3 2 2 2 2 4 4 5 5 5 5 5 5 6 6 6 6 7 7 7 8 7 7 6 7 7 7 7 7 7 7 7 8 8 10
6 6 5 5 4 4 4 4 4 3 2 3 4 5 6 6 5 6 6 6 6 7 7 7 8 8 8 7 7 7 7 8 8 7 7 7 7 7 8 7 8 10 10
6 6 4 4 4 4 4 4 4 5 4 5 5 5 5 6 6 6 6 6 7 8 8 8 8 7 7 9 8 7 8 8 8 9 8 7 7 8 8 8 8 9 10
6 5 5 4 4 4 4 5 5 5 5 6 5 5 6 6 6 6 7 8 9 10 10 10 9 8 8 9 9 9 9 9 9 9 9 9 7 9 10 10 10 10 9
5 5 5 4 4 4 4 5 6 6 6 7 7 7 8 8 8 8 8 8 8 9 9 9 8 8 8 9 9 10 9 10 10 10 10 11 11 11 10 11 12 11 10
5 6 5 5 6 6 6 6 6 7 7 7 8 8 9 8 8 8 8 8 8 8 8 8 9 8 8 9 10 10 11 11 12 11 12 12 12 11 11 13 14 14 13
5 5 6 6 6 7 6 7 8 8 8 8 8 7 7 7 8 8 7 8 7 7 8 8 8 10 12 11 11 12 15 15 16 14 13 12 13 12 12 14 15 15 15
5 6 6 7 7 7 7 8 7 8 6 6 6 6 7 7 7 7 7 8 8 9 11 11 12 12 13 13 13 14 16 16 16 16 16 16 13 13 13 12 14 14 12
6 6 6 7 7 7 7 8 7 6 6 7 7 7 6 6 6 8 9 9 10 12 13 14 15 15 15 14 14 14 15 15 17 17 16 16 14 14 13 13 11 11 11
6 6 6 6 6 6 6 7 7 7 7 7 7 7 8 8 9 11 11 11 12 14 15 15 15 16 16 17 16 16 16 16 17 17 16 15 15 14 14 13 12 12 11
7 6 6 6 7 6 6 7 7 7 7 9 10 10 10 11 12 11 12 14 16 17 16 16 16 17 18 18 18 18 18 17 17 17 17 17 16 16 15 15 13 12 12
7 6 7 7 7 7 7 7 7 8 10 10 10 12 12 14 14 14 16 17 17 16 17 17 16 18 19 18 17 17 17 19 17 18 19 18 17 16 16 15 14 12 12
7 7 7 7 8 8 8 8 9 10 11 12 13 14 14 14 15 16 17 16 16 15 16 16 16 17 17 17 17 17 16 16 15 18 19 21 22 19 17 16 15 14 13

GFSMW_con_lsi_054.txt.gz
Lid_Strength_Index
4 4 3 3 3 3 4 4 4 4 3 4 5 5 5 4 4 2 2 2 0 0 1 0 1 2 2 2 2 3 4 5 6 7 7 7 7 7 8 8 8 7 6
5 4 4 3 3 3 3 3 3 3 2 2 3 3 4 4 2 2 2 1 0 0 0 0 1 2 2 2 3 4 5 5 7 7 7 7 7 7 7 8 7 8 8
6 5 4 4 3 3 3 3 3 3 2 1 2 4 4 2 2 1 2 1 0 0 0 0 1 2 2 3 3 4 5 5 6 6 6 8 9 10 9 8 8 8 8
5 4 4 4 3 3 3 2 2 3 2 2 1 3 3 3 2 2 2 2 0 0 0 0 1 2 2 3 3 3 4 4 6 6 6 6 7 9 10 7 7 7 7
5 5 4 3 3 2 3 3 3 2 2 2 1 2 4 2 1 2 3 2 1 0 0 0 1 2 1 1 2 3 4 4 5 6 7 6 7 7 8 9 9 7 7
5 4 3 3 3 3 3 3 3 3 2 2 1 1 3 3 2 3 4 3 1 0 1 0 1 2 1 1 2 3 3 4 5 5 6 6 7 7 7 9 9 9 9
5 5 4 4 3 4 4 3 3 3 3 3 2 2 2 2 2 2 3 3 1 2 2 1 1 1 1 1 2 4 4 5 6 6 6 6 5 6 6 8 9 10 9
5 5 4 4 4 3 3 3 3 3 3 2 2 2 2 1 1 1 2 3 1 1 2 2 2 2 2 3 4 5 5 6 6 6 6 5 5 6 6 7 8 9 9
5 5 4 4 4 4 3 3 3 3 3 2 2 2 2 1 1 1 2 2 2 2 2 2 3 3 4 4 5 6 7 6 6 6 6 6 6 6 5 6 6 8 11
5 5 4 4 3 3 3 3 2 3 2 2 2 2 1 1 1 2 2 3 2 3 3 3 3 4 4 6 6 6 6 7 7 7 6 8 6 6 7 6 6 7 9
5 4 4 3 3 2 2 2 2 2 2 2 2 2 2 1 2 1 2 2 2 3 3 4 4 6 6 7 6 7 7 7 7 7 7 7 6 7 7 7 7 8 9
5 4 4 4 3 3 3 2 2 2 2 1 1 2 1 1 1 2 2 2 2 3 3 4 5 6 6 7 7 8 7 7 8 7 6 6 5 7 7 7 9 9 9
7 6 5 5 4 3 3 3 2 2 2 2 2 2 2 2 2 2 2 3 3 4 4 5 6 6 6 7 7 8 8 8 7 7 6 6 7 7 8 8 9 8 7
6 6 6 5 4 4 4 3 3 2 2 2 2 2 2 2 2 2 2 3 3 5 5 5 6 6 7 7 8 8 8 7 6 6 7 7 7 8 9 9 10 9 11
7 6 6 6 5 4 4 3 3 2 2 3 3 3 3 2 3 3 4 5 5 6 6 7 8 7 8 8 8 8 7 7 7 7 7 7 7 8 8 9 10 11 12
7 6 5 4 4 4 4 3 3 3 2 3 3 3 3 5 5 5 6 7 7 6 8 8 8 8 8 11 9 7 7 7 7 8 8 8 8 9 10 10 11 12 14
8 7 5 4 4 4 4 5 4 4 3 4 4 5 5 6 6 6 7 8 8 8 9 9 9 8 7 9 9 9 8 8 9 9 9 9 10 12 12 12 12 12 11
7 7 4 4 4 4 5 5 6 5 5 5 6 5 6 6 7 8 8 9 9 10 10 9 9 9 9 9 9 10 10 10 11 11 12 13 14 13 13 15 16 16 15
6 5 4 5 5 5 6 7 7 8 8 8 8 7 8 8 8 9 10 10 10 10 10 9 9 9 9 9 10 10 11 13 13 13 13 14 15 13 13 15 16 16 15
4 5 6 6 6 8 7 8 9 9 9 9 9 9 9 9 10 10 10 10 9 9 8 9 9 10 9 10 10 12 15 16 17 15 15 14 15 14 14 16 16 16 16
6 6 6 6 7 8 8 9 9 10 9 9 9 10 10 10 10 9 8 9 8 9 11 12 12 13 13 13 13 14 16 17 16 17 16 16 15 15 14 13 15 15 15
6 7 7 8 9 9 9 10 10 10 9 9 9 10 9 7 8 8 9 9 10 12 13 15 16 15 15 14 15 15 16 16 16 17 16 16 15 14 14 14 14 14 15
6 7 7 9 9 9 8 10 10 9 9 9 8 8 8 8 9 9 11 11 12 13 14 15 16 17 17 18 16 16 16 17 17 17 17 16 15 15 15 15 15 16 16
7 7 7 8 9 8 8 8 8 8 8 8 9 9 10 12 12 12 12 13 14 14 14 15 17 18 19 19 18 18 18 17 17 17 17 17 16 16 16 16 16 16 16
7 6 7 8 9 8 8 7 8 8 9 11 12 14 14 14 15 16 16 15 15 14 15 16 17 19 19 18 17 18 17 18 17 18 19 19 18 18 18 17 17 17 17
7 7 8 9 9 9 9 9 10 10 11 13 14 15 15 15 16 17 17 14 15 15 15 16 17 17 17 17 17 17 17 16 16 18 19 21 22 20 19 19 19 19 18

GFSMW_con_lsi_057.txt.gz
Lid_Strength_Index
5 4 3 3 4 4 4 3 4 4 4 3 4 4 5 4 4 3 2 2 1 1 1 1 1 2 2 3 3 4 4 5 6 8 8 8 7 7 8 8 7 7 6
5 5 4 3 3 4 4 4 4 4 3 4 4 4 5 5 4 4 3 2 2 1 1 1 1 1 2 3 3 4 5 5 7 8 8 9 8 7 7 9 8 9 8
6 5 4 4 3 3 3 3 3 3 3 3 4 4 4 4 3 3 3 2 2 1 1 0 1 2 3 3 3 4 5 5 7 7 6 8 9 8 8 7 7 8 9
5 5 4 4 4 3 2 3 3 3 3 2 2 3 4 4 4 3 2 2 1 1 1 0 1 2 2 3 3 3 5 4 6 6 5 6 6 8 8 7 7 7 7
5 5 4 4 3 3 4 3 3 3 3 2 2 3 4 4 4 2 2 2 2 1 0 0 1 1 2 2 3 4 5 5 4 5 6 6 7 7 8 10 8 7 6
6 5 4 3 4 3 3 3 3 3 3 3 2 3 4 4 4 3 3 3 3 2 1 0 0 1 1 2 2 3 3 4 4 5 5 6 6 7 7 9 8 8 7
6 5 5 5 4 4 4 4 3 3 3 3 3 2 2 4 4 4 3 3 3 3 1 1 1 1 1 1 1 2 3 4 4 5 5 5 5 5 6 7 8 9 8
5 5 5 5 4 4 4 4 4 4 3 3 3 3 2 2 3 3 2 2 2 2 2 1 1 1 3 3 3 2 3 4 5 6 6 6 6 6 6 7 8 9 9
5 5 4 5 5 5 5 4 3 4 3 3 3 4 3 3 3 3 2 1 3 2 2 2 1 2 3 3 4 5 6 6 6 6 6 6 6 7 6 6 7 8 11
5 5 4 4 4 4 4 4 4 4 3 3 3 3 3 3 3 2 2 1 1 2 3 3 3 3 4 4 5 7 7 7 7 7 7 7 7 6 6 7 6 7 8
5 5 4 4 4 4 4 4 4 4 3 4 4 4 3 2 2 2 1 1 2 2 2 3 3 3 4 6 7 7 7 7 7 7 7 7 6 7 6 6 7 8 9
5 5 4 4 4 4 4 4 3 4 3 3 3 3 3 2 2 2 1 1 2 2 2 2 3 3 5 5 6 7 7 7 7 7 7 7 6 7 7 7 8 8 9
7 5 5 4 4 3 3 3 3 3 3 3 2 2 2 2 2 2 1 1 1 1 2 4 4 5 5 6 6 6 7 7 7 7 7 7 7 7 7 8 8 8 9
7 6 6 4 4 3 3 3 3 3 2 3 2 2 2 2 2 1 1 1 1 2 3 4 5 6 6 6 7 7 8 7 7 7 7 7 7 7 8 8 9 11 12
8 7 6 6 5 4 3 3 3 2 2 3 2 3 2 2 2 2 2 2 3 4 5 5 6 7 7 7 8 8 8 8 8 8 7 6 6 7 8 9 11 13 14
8 7 6 5 5 4 4 3 3 3 2 2 2 2 2 3 3 2 3 4 5 6 6 7 8 8 8 10 10 8 8 8 8 8 7 7 8 10 11 11 11 13 15
8 8 5 5 4 4 4 4 4 3 3 3 3 3 3 3 4 5 6 6 7 7 8 8 9 8 8 11 10 10 8 8 8 8 8 9 11 12 13 13 14 14 13
8 8 7 4 4 4 4 5 4 3 3 3 3 3 4 5 6 6 7 8 8 9 9 9 8 8 9 11 11 10 8 9 10 10 10 12 13 14 15 16 17 16 16
7 7 7 4 4 4 5 6 6 4 4 5 5 6 6 7 7 8 9 9 9 10 9 9 9 9 10 10 10 10 11 12 13 13 14 15 16 14 14 16 17 16 15
7 5 4 4 5 6 6 7 8 7 7 7 7 7 7 8 8 9 9 10 9 10 10 11 10 10 10 10 10 11 13 15 15 15 15 14 16 15 15 16 16 17 17
4 4 4 4 6 7 7 8 9 9 8 9 9 9 8 9 9 10 10 10 10 12 13 14 14 13 12 11 11 12 13 15 16 16 17 17 16 15 15 15 16 17 17
5 5 6 7 7 7 7 9 10 11 11 11 11 10 10 10 11 11 11 11 12 13 15 15 15 15 14 13 13 14 14 15 16 17 17 17 16 15 15 16 16 16 17
6 6 7 8 8 7 7 10 11 11 11 11 11 10 10 10 11 12 11 12 13 14 15 15 16 17 16 16 15 15 15 16 17 17 17 17 16 16 16 17 17 17 18
7 7 7 8 9 10 10 11 11 10 10 11 10 10 13 14 13 12 12 13 13 14 15 15 17 18 18 18 17 17 17 17 18 18 17 17 17 17 17 17 17 18 18
7 7 8 10 11 10 10 10 9 9 10 11 13 14 15 16 15 15 14 15 14 13 15 16 17 18 18 18 17 18 18 18 17 18 18 19 19 19 19 19 19 18 18
8 9 9 10 10 10 10 10 9 10 12 14 15 15 16 16 16 17 17 14 14 14 14 15 16 16 17 17 17 17 17 17 17 19 20 22 22 21 20 20 20 19 19

GFSMW_con_lsi_060.txt.gz
Lid_Strength_Index
5 4 3 3 4 3 3 3 3 3 3 3 3 3 4 4 3 3 2 1 1 1 2 1 1 1 1 1 2 3 4 5 5 6 7 7 7 7 8 7 7 6 6
5 4 4 3 4 4 4 4 3 3 3 2 2 3 4 4 3 3 2 2 2 1 1 1 1 1 2 2 3 4 5 4 6 7 8 9 8 7 7 8 8 7 7
7 5 5 4 3 4 3 3 3 3 3 3 3 5 5 4 4 4 4 3 3 2 1 1 1 2 2 3 3 4 4 5 6 7 5 8 9 8 7 7 8 8 8
6 6 5 4 3 3 3 3 2 2 3 3 4 5 5 5 5 4 4 3 2 2 2 1 2 2 2 3 3 3 4 4 6 7 6 6 6 8 8 8 7 7 7
6 6 5 4 3 2 2 2 3 2 2 3 3 4 6 4 4 3 3 2 2 2 2 1 1 1 1 2 3 4 4 5 5 6 7 7 6 6 7 8 8 7 6
6 6 5 5 4 3 3 3 4 4 3 3 3 3 4 4 5 5 4 3 3 2 2 1 1 1 2 2 2 3 3 4 4 5 5 6 7 7 7 8 8 8 7
6 6 7 6 5 5 4 3 3 4 3 3 3 2 3 4 4 4 5 4 4 3 3 2 2 2 2 1 1 2 2 3 3 4 4 4 4 5 5 7 8 8 7
6 6 6 6 6 4 4 4 4 3 3 4 4 3 2 3 4 5 5 4 4 4 3 3 2 2 2 1 1 1 2 2 3 4 4 4 5 5 6 7 8 9 9
6 5 5 5 6 6 4 4 4 3 3 3 4 4 4 3 3 4 4 3 3 3 3 2 2 2 2 3 2 2 3 4 4 5 6 5 6 6 6 7 7 8 9
6 5 5 5 5 5 5 4 4 4 4 3 3 3 4 4 3 3 4 3 3 2 2 3 2 2 3 3 4 4 6 5 7 6 6 7 7 7 6 7 7 7 7
6 5 5 4 4 5 5 5 5 5 5 4 4 4 4 5 3 3 3 3 3 2 1 2 2 2 3 3 4 5 6 6 6 7 7 7 8 7 7 6 6 7 8
6 5 5 4 4 5 5 5 5 5 5 4 5 4 4 4 4 4 3 3 2 1 1 1 1 2 3 5 5 5 6 6 7 7 7 8 7 7 7 7 8 8 8
7 6 5 5 4 4 4 4 5 5 5 4 5 5 5 4 4 4 3 3 2 1 2 2 2 3 4 4 5 5 6 6 7 7 7 8 7 8 8 8 9 8 8
9 7 6 5 4 4 4 4 4 4 4 4 4 5 5 4 4 3 3 2 2 2 1 1 1 2 4 4 5 6 7 7 6 7 7 7 7 7 8 8 9 9 10
9 8 6 6 4 4 4 4 3 3 3 4 4 4 4 3 3 3 2 2 2 2 2 2 3 4 6 6 7 7 7 8 8 8 8 7 8 7 8 8 10 11 12
8 9 7 6 5 4 4 3 3 3 3 3 3 3 3 3 3 3 3 3 2 2 2 4 4 7 7 10 10 9 8 8 8 9 8 8 9 9 11 10 11 11 14
8 8 8 6 5 5 4 4 3 3 3 3 3 3 3 3 3 3 3 3 3 4 5 6 7 7 8 12 11 11 8 9 8 9 9 10 11 11 11 12 13 13 14
8 8 8 7 5 5 5 5 5 4 3 3 3 3 3 3 3 3 4 5 6 6 7 7 7 8 10 12 11 12 9 10 10 10 10 11 12 12 13 14 15 15 15
8 8 8 7 6 4 4 4 5 4 4 4 4 4 3 3 5 6 8 8 8 7 9 9 9 10 11 12 12 11 12 13 13 13 12 13 13 13 13 15 15 16 15
8 8 8 7 5 4 4 4 4 5 5 5 5 4 5 6 7 8 8 9 9 10 11 11 10 12 12 13 12 12 13 14 15 14 14 13 14 14 14 15 16 17 17
6 5 5 5 4 4 4 6 6 5 6 7 7 8 7 8 8 10 10 10 11 13 14 15 15 14 13 13 12 11 13 14 15 15 16 15 14 14 14 15 16 17 17
5 5 5 6 6 6 6 8 8 8 9 9 10 10 10 11 11 11 12 12 14 15 16 17 17 17 15 13 13 13 13 14 15 16 17 16 14 14 15 16 16 17 18
6 6 6 7 7 6 7 8 11 11 11 11 12 11 11 11 11 12 13 14 14 16 16 16 16 17 16 15 15 15 15 15 16 16 16 15 14 15 16 17 17 18 19
7 6 7 8 9 8 9 10 11 10 11 12 13 12 13 13 13 13 13 14 15 15 15 16 17 17 17 17 16 17 16 16 17 17 16 17 17 17 17 18 18 19 19
7 7 8 10 10 9 10 10 10 11 12 13 13 14 14 15 15 16 15 15 14 14 15 16 17 18 18 18 17 17 18 17 17 18 18 19 19 19 19 20 20 20 20
9 10 11 12 12 12 13 11 11 11 13 14 15 15 16 16 16 16 17 15 15 15 16 16 17 17 17 17 16 16 16 16 17 18 20 21 21 21 21 21 21 21 20

GFSMW_con_lsi_063.txt.gz
Lid_Strength_Index
4 3 2 2 2 2 2 3 4 3 2 2 2 2 2 1 1 1 1 1 1 1 0 0 0 0 1 1 0 0 1 1 2 3 3 3 4 4 4 4 3 3 2
5 4 3 2 2 3 3 3 3 2 2 2 2 2 1 1 1 1 1 1 1 1 0 0 0 0 0 0 -0 0 1 0 2 2 3 4 3 4 4 4 4 4 3
6 5 4 3 2 3 2 2 3 3 2 2 3 3 3 3 2 2 1 1 0 0 -0 -0 0 -0 -1 0 0 0 1 2 2 1 2 4 5 3 3 3 4 4 4
5 4 4 3 3 2 1 1 2 2 2 2 3 3 3 4 2 2 1 2 1 0 0 0 0 -1 -1 -0 -0 -0 0 0 2 2 3 2 2 4 4 3 5 5 5
5 5 4 3 2 2 1 1 1 2 2 2 3 4 3 3 4 3 2 2 2 1 1 1 0 -0 -1 -0 -0 -0 0 0 1 1 2 3 3 3 4 5 4 6 5
5 4 4 3 3 2 1 1 1 1 2 2 2 3 3 3 3 4 3 2 1 1 0 0 -0 -1 -1 -0 -0 -1 -0 0 0 1 1 2 5 4 5 5 5 7 5
5 5 5 5 3 3 2 2 1 2 1 2 2 2 1 2 2 2 2 2 1 1 0 -0 -0 -0 -1 -1 -1 -0 -0 -0 0 2 3 4 3 1 4 5 6 6 6
5 5 4 4 4 3 2 2 2 2 1 1 2 1 1 1 1 1 1 1 1 0 -0 -0 -1 -1 -1 -1 -1 -0 -0 -0 2 2 2 1 2 1 2 4 6 8 6
5 5 4 4 3 3 2 2 2 2 2 2 1 1 1 1 1 0 1 1 1 1 0 -0 -0 -1 -1 -1 -0 -0 0 0 1 0 0 1 1 1 3 4 3 5 7
5 4 4 4 3 3 3 3 2 2 2 1 1 1 1 1 1 0 1 1 0 1 0 0 -0 -0 -0 -0 -0 0 0 1 1 1 2 2 2 3 4 4 4 4 4
5 5 4 3 3 3 3 3 3 3 2 2 2 2 2 2 1 2 1 1 1 0 0 0 0 0 0 -0 0 1 2 2 2 3 4 3 4 5 5 5 4 4 6
4 4 4 3 3 3 3 4 4 3 3 2 2 2 2 2 2 2 2 1 1 1 1 1 1 1 1 1 2 2 3 4 4 5 5 5 6 6 5 6 7 5 6
6 4 4 4 4 3 3 3 3 3 3 3 3 2 2 2 2 2 2 1 1 1 0 0 0 1 1 1 2 2 3 4 4 5 5 5 6 6 7 8 8 7 7
6 5 4 4 3 3 3 3 3 3 3 3 4 3 3 3 3 2 2 2 1 1 1 0 0 0 0 1 2 3 4 5 4 5 5 6 6 7 8 7 9 7 10
6 6 5 4 3 3 3 2 2 2 2 3 3 3 2 3 3 3 3 2 1 2 2 1 1 0 1 1 2 3 3 4 6 7 7 7 7 8 8 8 9 10 10
5 5 6 5 4 3 3 3 2 2 2 2 2 2 2 2 2 2 2 2 2 2 1 1 1 2 3 8 8 5 5 7 8 9 8 8 9 10 10 10 10 9 12
5 5 6 6 4 3 3 3 2 2 2 2 2 2 2 2 2 2 2 2 2 2 2 2 2 2 3 9 9 9 7 8 8 9 10 10 11 12 12 13 13 12 12
6 5 5 5 4 3 2 2 2 2 2 2 2 2 2 2 2 2 2 1 1 2 3 3 4 4 6 10 11 12 9 9 10 10 10 12 13 13 14 14 15 14 13
6 6 5 5 5 4 3 3 3 2 3 3 2 2 2 2 2 2 2 4 5 7 8 7 8 9 11 12 12 11 12 13 14 13 13 13 14 13 13 14 15 14 14
6 6 5 6 6 5 3 3 3 3 3 3 2 2 2 2 3 6 7 8 8 10 11 11 10 12 12 13 13 12 14 15 16 15 15 15 14 14 14 14 14 15 15
5 4 3 4 3 3 2 3 3 3 3 3 3 4 4 5 6 8 9 10 11 13 14 15 14 13 12 13 13 13 14 15 16 16 16 15 14 14 14 14 14 15 15
5 3 4 4 4 3 3 4 4 5 5 6 7 8 8 9 9 10 11 13 13 15 16 16 16 16 14 14 14 14 14 15 16 16 16 15 14 14 15 15 16 17 17
5 5 5 5 6 5 4 6 8 7 8 9 10 11 10 10 11 12 13 14 14 15 15 16 17 17 17 16 15 15 15 15 16 15 15 14 14 15 16 17 17 17 17
6 5 6 8 8 7 8 8 9 9 9 10 11 11 12 13 13 13 13 13 14 15 16 16 17 18 18 18 18 17 17 17 16 16 15 15 16 16 17 17 17 17 18
8 8 9 10 12 11 9 8 7 9 11 12 13 14 14 15 15 15 14 14 14 13 14 15 16 18 19 18 17 17 17 17 16 16 16 17 18 17 18 18 18 18 18
12 12 12 12 13 14 14 13 11 10 12 14 14 14 14 15 15 16 17 15 15 15 15 16 16 17 17 16 16 16 16 16 17 17 18 19 18 18 18 18 18 19 20